GFSNE_850_thetae_024.txt.gz
Theta_e
290 291 291 291 291 291 291 291 291 293 293 292 292 291 291 292 292 293 293 294 298 300 301 299 296 295 297 299 299 299 299 298 299 307 309 306 304 303
289 290 291 289 288 288 289 290 291 291 291 291 290 290 290 291 291 292 292 292 292 296 297 297 295 296 296 297 298 298 298 297 304 307 308 306 303 302
289 290 290 289 289 288 286 287 289 289 290 289 289 289 290 290 290 290 290 290 291 292 294 295 295 294 294 294 295 295 296 295 302 303 304 304 303 303
288 288 287 287 287 286 285 285 286 288 288 288 289 289 288 288 288 288 289 289 289 290 290 293 294 294 294 294 294 293 293 294 295 299 300 301 301 301
288 287 286 286 286 285 285 285 285 286 287 287 287 287 288 288 287 287 287 288 288 288 289 290 290 291 293 293 293 293 293 293 293 293 294 297 298 299
287 285 284 283 282 283 284 285 285 286 286 287 287 286 286 286 286 285 285 286 287 288 289 290 290 290 291 291 292 292 293 293 293 293 293 292 292 292
284 284 283 282 281 281 283 284 284 284 285 286 286 286 285 285 285 285 284 284 287 288 289 289 290 290 291 291 291 291 292 292 293 293 293 292 291 291
283 283 282 281 281 280 281 281 282 283 283 284 284 285 285 285 285 284 284 284 284 286 287 288 288 289 289 290 291 291 292 292 292 292 292 292 291 291
282 282 281 280 280 280 280 281 281 281 282 282 283 283 283 283 284 283 283 284 284 284 284 285 287 287 289 289 289 289 290 290 291 291 292 291 291 291
281 280 280 279 279 279 280 281 282 282 282 282 283 283 283 283 283 283 283 284 284 284 285 285 285 285 286 286 287 287 287 288 288 288 289 289 290 290
279 279 279 279 279 280 280 281 281 281 281 281 282 283 283 284 283 283 284 284 284 284 284 284 284 284 285 285 285 286 286 286 287 287 287 287 287 287
278 279 279 279 280 280 280 281 281 281 281 281 281 281 282 282 282 282 282 282 282 282 283 283 283 284 284 284 285 285 286 286 286 286 286 286 287 287
278 279 279 280 280 280 280 281 281 281 281 281 281 282 282 283 283 283 284 284 284 284 284 284 284 284 284 284 286 287 287 287 287 287 287 288 288 288
278 279 279 279 279 279 280 280 281 281 281 282 282 282 283 283 284 284 285 285 285 286 286 285 285 285 286 286 285 286 286 286 287 287 287 288 288 288
278 278 278 278 278 279 279 280 280 280 281 281 281 282 283 283 284 285 285 285 286 286 286 286 286 286 286 286 286 286 286 286 286 287 287 287 287 288
277 278 278 278 278 278 278 279 279 279 280 280 281 281 282 283 284 285 286 286 286 286 286 286 286 286 286 286 286 286 286 286 286 286 286 286 286 286
277 277 277 277 277 277 278 278 278 278 279 280 280 281 282 283 284 285 285 286 285 286 287 286 286 286 286 286 286 286 286 285 286 285 285 286 286 286
276 276 276 276 275 276 276 277 277 277 278 279 280 280 281 282 283 284 284 285 286 287 287 287 287 287 287 287 286 286 286 286 285 285 285 286 286 286
274 275 275 275 275 275 275 276 276 276 277 278 279 280 281 281 282 282 283 284 285 285 286 286 286 286 286 286 287 286 286 286 286 286 286 286 286 286
274 274 274 274 274 274 274 275 275 276 276 278 278 279 280 280 281 281 281 282 283 283 284 284 284 285 285 285 285 285 285 285 285 285 285 285 286 286
275 273 273 273 273 273 274 274 273 273 275 277 278 278 279 279 279 280 280 281 281 281 282 282 283 282 283 283 284 284 284 284 283 283 284 284 285 285
277 275 274 273 273 273 273 273 273 273 274 276 277 277 278 278 278 278 279 279 279 280 280 281 282 282 282 282 282 283 283 283 282 282 283 283 283 284
276 277 275 274 273 273 273 273 273 273 273 274 275 275 276 277 277 277 278 278 278 278 280 281 282 281 282 282 282 282 282 282 281 281 281 282 282 282

GFSNE_850_thetae_027.txt.gz
Theta_e
289 289 289 289 290 289 288 287 287 289 289 290 291 290 290 290 290 290 291 292 292 293 296 298 299 300 299 303 301 297 298 300 301 300 306 309 307 305
288 288 289 289 289 289 288 287 286 285 288 289 289 289 289 289 289 290 289 290 290 291 292 294 297 295 295 294 296 296 296 298 300 300 302 308 309 306
288 288 288 287 287 286 286 286 286 285 285 286 288 288 288 288 288 288 288 289 289 289 290 292 294 295 295 296 296 295 299 297 297 300 302 307 306 307
288 288 287 287 286 285 284 284 284 285 284 285 286 287 288 288 287 287 288 288 287 288 288 289 291 293 294 294 294 293 293 293 295 298 305 304 305 304
287 287 286 285 284 283 282 282 283 284 285 285 286 286 286 286 286 286 286 286 286 286 287 288 289 290 291 294 293 293 293 293 293 293 294 298 300 301
286 285 284 283 283 282 281 281 282 283 284 284 285 286 286 286 286 286 285 285 285 285 287 288 289 289 290 290 291 293 292 293 293 293 293 292 294 297
284 283 283 282 282 281 280 280 281 281 282 282 283 284 285 286 286 285 285 284 284 284 285 288 289 290 290 290 291 292 291 292 292 293 293 293 293 292
283 282 282 281 280 280 279 280 280 281 281 281 282 282 283 284 284 285 284 284 284 284 284 285 287 288 289 290 290 291 291 292 291 292 293 293 293 292
281 280 280 279 279 279 279 280 280 281 281 282 282 282 282 282 283 283 283 283 283 283 284 284 284 286 287 288 289 289 289 291 291 291 292 292 292 292
279 279 279 279 279 279 279 280 280 281 281 281 281 282 282 282 282 282 282 283 283 283 283 283 284 284 285 285 286 287 289 289 289 289 290 290 291 291
279 279 279 279 279 280 280 281 281 281 281 281 280 281 281 283 283 283 283 283 283 283 283 283 283 283 284 284 285 285 286 286 287 287 287 288 288 288
279 279 279 279 280 280 280 280 281 281 281 281 281 281 281 281 281 282 283 282 282 282 283 283 283 283 283 284 285 285 285 285 285 286 286 286 286 287
278 278 279 279 279 279 279 280 280 281 281 281 281 282 282 282 282 282 282 282 282 283 284 283 284 283 284 284 285 285 284 285 286 287 286 286 286 286
278 278 277 278 278 278 279 279 279 280 281 281 281 282 282 283 283 284 284 284 284 285 285 285 284 285 285 285 285 285 286 286 286 286 287 287 287 288
277 277 277 278 278 278 278 278 279 279 280 280 280 281 282 282 283 284 284 285 285 285 286 286 285 285 285 285 285 286 286 286 286 286 287 287 287 287
277 277 277 277 277 277 278 278 278 278 279 279 280 281 282 283 284 285 286 285 286 286 286 286 286 286 285 285 285 286 286 286 286 286 286 287 287 286
275 275 277 277 276 276 276 277 277 278 278 279 280 280 282 282 283 284 285 285 285 285 286 286 286 286 286 286 286 285 285 285 285 285 286 286 286 286
275 275 275 275 275 275 275 276 276 277 277 278 279 280 281 281 282 283 284 285 285 286 286 286 287 287 286 286 286 286 286 286 286 285 285 285 285 285
275 274 274 274 274 274 274 275 275 275 276 278 279 279 280 281 281 282 283 283 284 284 285 285 286 286 286 285 286 286 286 286 286 286 285 285 286 286
277 275 274 274 273 274 274 273 273 274 275 277 278 278 279 279 280 280 281 281 282 283 283 283 284 284 284 285 285 285 285 285 285 285 284 285 285 285
277 277 274 274 274 273 273 273 273 273 274 276 277 277 278 278 279 279 279 279 280 280 281 282 282 283 282 283 283 283 284 284 283 283 283 284 284 284
276 276 276 275 274 274 274 274 274 274 273 274 275 276 276 277 278 278 278 278 278 279 279 280 281 282 282 281 282 282 283 283 282 282 282 283 282 283
277 276 275 276 275 275 274 274 274 274 274 273 273 274 274 275 276 277 277 277 277 277 279 280 281 281 281 282 282 282 282 282 281 281 281 282 281 282

GFSNE_850_thetae_030.txt.gz
Theta_e
289 288 288 288 288 289 288 287 286 286 286 286 286 286 287 288 290 289 289 289 290 290 290 291 294 298 300 301 300 300 298 298 299 299 302 307 308 306
287 287 287 287 287 287 287 286 286 285 285 285 285 285 285 287 288 288 288 287 288 289 289 290 290 295 297 298 299 297 297 298 298 299 300 306 307 308
288 288 287 287 287 287 286 285 284 283 283 284 285 285 285 286 287 288 288 287 286 287 288 289 289 291 295 295 295 296 299 301 302 301 300 303 305 307
288 287 287 287 286 284 283 283 282 282 282 283 283 284 284 285 288 287 287 286 286 287 287 287 288 289 291 294 295 295 295 295 299 303 302 305 306 305
288 287 286 285 284 283 283 282 282 281 281 282 283 283 284 285 286 286 286 286 286 285 286 286 287 288 289 292 293 294 294 294 295 297 300 304 304 304
286 285 284 283 283 282 282 281 281 280 280 280 281 282 283 284 285 285 286 286 285 285 285 285 287 288 289 289 291 293 293 294 294 293 294 296 299 300
284 283 282 282 281 281 280 280 280 280 280 280 281 281 282 282 284 285 285 285 285 284 284 284 287 289 289 290 290 290 291 293 293 293 293 294 294 296
281 280 280 280 279 279 279 279 279 280 280 280 281 281 281 281 282 282 283 284 284 284 284 284 284 287 288 289 290 291 290 291 291 293 293 293 292 293
281 280 279 279 279 279 279 280 280 280 280 280 281 281 281 282 282 282 282 283 283 283 283 283 284 284 287 289 288 289 290 291 291 291 291 293 293 292
280 279 279 279 279 279 280 281 280 280 281 281 280 281 281 281 282 282 282 282 282 282 283 283 283 284 284 285 287 289 289 289 290 291 291 291 292 292
280 279 279 279 279 279 280 280 280 280 281 281 281 281 280 281 281 282 282 283 282 282 283 283 283 283 283 284 284 285 287 288 290 289 289 289 290 291
280 279 279 278 278 279 279 279 279 280 280 281 281 281 281 281 281 281 281 282 283 282 282 282 283 283 283 284 284 284 285 285 286 287 287 288 288 288
278 278 278 277 277 278 278 278 279 279 280 280 281 281 282 282 282 282 282 281 281 281 282 282 283 283 283 283 284 284 285 285 285 285 285 286 286 286
278 277 277 276 277 278 278 278 278 279 279 280 280 281 281 282 282 283 283 283 283 284 284 284 284 284 284 284 285 285 285 285 285 285 286 287 286 286
277 276 276 277 277 277 277 278 278 278 278 279 280 280 281 282 283 283 284 284 284 284 285 285 285 285 284 284 284 285 286 286 286 286 286 286 287 287
278 276 275 277 276 276 276 277 277 277 278 279 279 280 281 282 283 284 285 285 285 285 286 286 286 285 285 284 284 285 285 285 285 286 287 287 287 287
278 276 276 276 276 276 276 276 276 276 278 278 279 280 281 282 282 283 284 285 285 285 286 286 286 286 285 285 285 285 285 285 285 285 286 286 286 286
279 277 276 275 275 275 275 275 274 275 277 278 278 279 280 281 281 282 283 283 284 284 285 286 286 286 285 285 285 285 285 286 286 285 285 285 286 286
278 278 276 275 275 274 274 274 274 274 275 277 278 278 279 279 280 281 281 282 283 283 283 284 285 286 285 285 285 286 286 286 286 286 285 285 285 285
277 278 277 276 275 275 274 274 274 274 274 276 277 277 278 278 279 279 279 280 281 281 282 283 283 283 284 284 284 284 284 285 285 284 284 284 285 285
277 277 277 277 276 275 274 274 274 274 274 274 275 275 276 277 278 278 278 278 278 279 280 281 282 282 282 282 282 283 283 284 284 283 283 283 284 284
278 277 276 276 276 276 275 275 275 275 274 274 274 274 274 275 276 277 277 277 277 277 278 280 281 281 282 282 281 282 282 283 282 282 282 283 283 283
279 278 277 276 276 275 275 275 274 275 275 274 274 273 274 274 274 275 275 276 276 276 278 279 280 281 281 281 281 281 282 282 281 281 281 281 282 282

GFSNE_850_thetae_033.txt.gz
Theta_e
289 288 287 287 287 287 288 287 287 287 287 287 286 287 287 288 289 288 289 289 289 288 287 287 288 290 292 296 300 304 304 303 302 301 304 306 306 306
289 288 288 288 288 287 287 287 286 286 285 285 285 285 286 286 287 287 288 289 288 288 287 286 287 288 289 291 296 299 301 300 299 300 304 304 306 307
288 288 288 287 287 286 286 285 284 284 284 284 284 284 285 285 286 286 287 288 288 287 286 286 287 287 288 290 293 296 298 300 302 298 299 304 305 305
288 288 287 286 286 285 284 284 283 283 283 283 283 284 284 285 285 286 287 287 287 287 286 286 286 286 287 288 290 295 296 298 298 299 302 301 306 306
288 287 286 285 284 284 283 283 283 282 282 282 282 282 283 283 284 285 286 286 286 286 286 285 285 285 286 288 289 292 295 295 297 301 303 303 304 305
286 285 284 283 282 282 282 282 282 282 281 281 281 282 282 283 283 284 285 286 286 286 285 285 285 285 286 287 288 290 294 295 296 301 300 304 305 303
284 283 282 281 281 280 280 281 281 281 280 281 281 282 282 282 283 283 284 284 285 285 286 285 286 286 288 289 288 290 292 293 294 296 298 298 297 301
282 282 281 281 280 280 280 280 280 280 281 281 281 282 282 282 283 283 283 283 284 285 285 285 285 286 287 288 290 291 290 292 293 294 295 298 295 295
282 281 280 279 279 279 279 280 280 280 280 280 281 281 281 282 282 282 283 283 283 284 284 284 285 285 285 286 288 290 291 290 291 292 293 292 292 291
281 280 279 279 278 278 279 280 280 280 280 281 281 281 281 281 281 282 282 282 283 283 283 283 284 285 284 284 285 288 289 291 291 291 291 292 292 293
281 279 278 278 278 278 279 279 279 280 280 280 280 281 281 281 281 281 281 282 283 284 283 283 284 284 284 284 284 285 288 288 289 291 291 291 291 292
279 279 278 278 277 278 278 278 278 279 279 279 280 280 281 282 282 282 281 282 283 284 283 283 284 284 285 284 284 284 285 286 289 288 288 289 291 291
278 278 277 278 277 277 277 277 278 278 278 278 279 280 281 281 282 282 282 282 282 283 283 283 283 284 284 285 285 284 284 284 285 286 288 289 289 289
278 278 276 276 278 277 276 277 278 278 278 278 279 279 280 281 281 282 283 283 283 283 283 283 283 283 284 285 285 285 285 285 285 285 285 285 286 286
278 278 276 276 276 276 276 276 277 277 278 278 278 279 281 281 282 283 284 284 284 284 284 284 284 284 284 285 285 285 285 285 285 284 284 285 286 286
278 278 276 276 275 276 276 276 275 276 277 278 279 280 281 282 282 283 284 285 285 285 285 285 285 284 284 284 285 285 285 286 286 286 286 286 286 287
278 279 278 276 276 276 275 275 274 275 277 278 278 279 280 281 281 282 283 283 284 284 285 285 286 285 285 285 285 285 285 285 285 286 286 286 287 287
278 278 278 277 276 275 275 275 275 274 275 277 278 278 279 279 280 280 282 282 283 283 284 285 286 286 285 285 285 285 285 285 285 285 285 286 287 286
279 277 278 278 277 275 275 275 275 274 274 275 277 277 278 278 278 278 279 280 280 281 283 284 285 286 286 287 285 285 285 285 285 285 285 285 285 286
279 278 277 277 277 277 276 275 275 275 274 274 274 275 276 277 278 278 277 279 279 279 280 281 283 284 284 284 284 284 285 285 285 284 284 285 285 285
280 279 278 277 277 276 276 276 276 275 275 274 274 274 274 275 276 277 277 277 277 278 279 280 281 282 283 283 283 283 283 283 284 283 283 283 284 284
280 280 279 279 277 277 276 275 275 275 275 274 274 274 274 274 274 275 275 275 276 276 277 279 280 281 282 282 283 282 282 283 283 282 282 283 283 284
280 280 279 279 278 277 277 276 276 275 275 274 274 274 274 273 273 274 274 274 274 275 277 279 280 281 281 281 281 281 282 282 282 281 281 281 282 282

GFSNE_850_thetae_039.txt.gz
Theta_e
296 295 295 294 293 293 292 291 291 291 290 290 290 289 289 289 288 288 288 288 288 288 288 288 288 288 288 286 288 288 288 290 296 304 307 311 312 313
295 294 293 293 292 292 291 290 290 290 289 289 289 288 288 288 288 287 287 287 288 287 288 288 288 289 288 287 286 287 287 288 290 296 302 307 310 312
293 293 292 292 291 291 290 289 289 289 288 288 288 287 287 287 287 286 286 287 287 287 287 288 289 289 288 288 286 285 286 287 288 292 296 300 303 310
292 291 290 290 290 289 288 288 288 287 287 287 286 286 286 286 285 285 286 286 286 287 287 288 288 288 288 287 286 285 286 286 288 290 295 298 302 303
290 290 289 288 288 287 287 286 286 286 286 285 285 285 285 285 285 285 285 285 286 286 286 287 287 287 287 286 286 285 285 286 288 289 294 296 300 301
289 288 287 286 286 285 284 284 284 284 284 284 284 284 284 284 285 285 285 285 285 285 286 287 288 288 287 287 286 285 285 286 288 289 293 295 297 298
288 287 286 285 284 283 282 282 282 282 282 283 283 283 284 284 285 284 285 284 285 286 286 286 287 288 288 289 288 289 288 288 287 289 293 294 296 298
287 286 285 285 284 283 283 282 281 281 282 282 283 283 283 283 284 284 284 284 285 285 285 286 286 287 288 289 289 289 289 289 288 290 293 293 294 296
286 285 285 284 284 283 282 281 281 281 282 282 282 283 283 283 283 283 283 284 284 284 285 285 285 286 287 287 288 287 287 287 288 290 292 293 294 296
286 285 284 284 283 282 280 280 281 281 282 282 282 281 281 281 281 282 283 283 283 284 284 285 285 285 285 286 286 287 286 286 287 290 291 292 293 294
285 284 284 283 282 280 278 279 280 280 281 281 280 280 280 281 282 282 282 283 284 284 284 285 285 285 285 286 286 287 286 286 287 290 290 292 292 293
284 284 283 283 282 278 277 278 279 280 279 279 280 281 282 282 283 283 283 284 284 284 285 285 286 286 286 287 287 286 287 287 285 288 289 290 292 292
283 283 283 282 280 278 277 277 278 276 278 279 280 281 282 282 282 283 283 283 284 285 285 285 285 286 286 286 287 287 287 288 287 286 289 290 291 292
282 282 282 280 280 278 278 277 277 278 279 279 280 281 281 281 281 282 283 284 285 284 285 285 285 285 286 286 287 288 287 287 288 288 288 289 289 291
281 281 281 280 280 280 279 279 278 279 278 279 279 280 280 280 281 282 283 284 285 286 285 285 284 285 285 286 287 288 288 288 287 287 288 289 289 288
282 282 281 281 281 280 280 280 279 279 278 278 279 279 280 280 281 281 282 283 285 286 286 285 285 285 285 286 286 287 288 288 287 287 287 288 289 289
282 281 281 282 281 281 281 280 280 279 279 277 278 278 279 279 280 280 281 282 284 284 285 286 286 286 285 285 286 287 288 288 288 287 287 287 287 288
282 281 282 282 281 281 281 280 280 279 278 277 277 278 278 278 279 280 281 281 282 283 284 285 286 286 286 285 285 286 288 288 288 287 287 287 287 287
281 281 282 282 281 281 281 280 280 279 278 278 277 278 277 277 278 280 280 280 281 282 283 284 284 284 285 287 286 285 287 287 287 287 287 286 288 289
281 282 282 282 281 281 281 280 279 278 278 277 277 277 277 277 278 278 279 279 279 281 282 283 283 282 283 285 286 285 285 286 286 287 287 286 286 286
283 282 283 282 282 281 281 279 278 277 277 277 277 277 277 277 277 277 278 278 279 279 280 281 281 281 283 284 285 285 285 285 285 286 286 286 286 286
283 282 282 282 282 281 280 279 278 278 278 278 277 276 276 276 277 277 277 277 278 278 279 280 281 282 283 284 285 284 284 284 284 284 284 285 286 287
283 283 282 282 282 280 279 279 278 278 277 277 276 276 276 276 276 277 277 277 277 277 277 279 280 282 282 283 283 284 283 283 284 283 283 283 284 285

GFSNE_850_thetae_042.txt.gz
Theta_e
296 296 295 295 294 293 293 292 291 291 291 290 290 289 289 289 288 288 288 287 287 287 287 287 287 287 288 289 289 289 288 286 288 288 289 296 301 307
294 294 294 293 293 291 290 291 291 290 290 289 289 289 288 287 287 287 287 287 286 286 286 286 286 287 288 289 289 288 288 287 286 287 288 291 297 302
293 292 292 291 291 291 290 289 289 288 288 287 287 287 286 286 285 285 285 285 285 286 286 286 286 287 287 288 289 289 288 287 285 286 287 288 292 297
291 291 291 290 289 289 288 288 287 287 286 285 286 285 285 285 285 284 285 285 284 285 285 286 286 286 287 287 287 287 287 287 286 285 286 288 291 294
290 290 289 288 288 287 286 286 285 284 284 284 284 284 283 283 284 284 284 285 285 285 285 286 286 287 287 288 288 287 286 285 285 285 286 287 290 295
289 288 288 287 286 286 285 284 283 282 282 282 282 282 282 283 283 284 284 284 284 284 284 284 285 286 286 287 287 287 287 286 285 287 286 288 290 294
287 287 287 286 286 285 284 283 283 282 281 281 281 282 282 282 282 283 283 283 283 284 284 285 285 285 286 287 288 288 289 288 289 289 287 288 291 293
286 287 286 285 285 284 284 283 283 281 281 281 281 282 281 283 283 282 282 281 283 282 283 284 284 284 285 286 288 288 289 289 287 287 288 289 291 292
286 286 286 285 285 284 283 283 280 280 281 281 282 282 281 281 280 280 280 281 282 283 283 283 283 284 284 285 286 287 287 287 287 286 287 290 292 293
286 286 285 284 284 283 282 281 278 280 280 281 281 281 280 280 280 281 282 282 282 283 283 284 284 284 284 285 285 285 285 286 286 286 287 290 291 292
285 284 285 284 283 283 282 280 278 278 280 280 279 279 280 281 282 283 283 283 283 284 285 284 284 285 285 285 285 285 286 286 286 286 287 290 291 292
284 284 284 284 283 283 281 279 278 278 277 278 279 280 280 281 282 282 282 283 283 284 284 285 285 285 286 286 286 286 286 286 287 286 287 289 291 291
283 283 283 283 283 281 280 279 278 278 279 279 279 279 280 280 281 281 282 283 284 284 285 285 285 285 285 285 285 286 287 287 287 287 286 289 291 291
283 283 282 282 281 281 281 280 280 279 279 278 278 279 279 280 280 281 282 282 284 285 286 285 285 285 285 285 285 287 288 287 287 288 286 288 290 291
283 283 282 282 281 281 281 280 280 280 279 278 278 278 278 279 280 280 281 282 284 285 286 285 285 285 285 285 285 286 288 288 287 287 288 288 289 290
283 282 282 281 282 281 281 281 280 280 279 279 278 278 278 278 279 280 281 281 283 284 285 286 285 285 285 285 285 286 287 288 288 287 288 288 289 289
284 283 282 282 282 282 281 281 280 280 280 279 278 278 278 278 278 279 280 280 281 282 283 284 285 286 285 285 285 286 287 288 288 288 287 287 288 289
283 282 282 282 282 282 281 281 281 280 279 279 278 278 278 277 278 279 279 280 280 281 282 283 284 284 286 286 285 285 287 288 288 287 286 287 287 288
282 282 281 282 282 282 281 281 281 280 279 278 278 277 277 277 277 278 278 279 279 280 281 282 283 283 285 285 286 285 286 287 287 287 288 287 288 287
282 282 282 282 282 282 281 281 281 280 279 278 278 277 277 277 277 277 277 278 278 279 279 280 281 282 283 283 284 285 285 286 286 287 287 286 286 287
283 283 283 283 283 283 282 281 281 280 279 278 278 277 277 277 277 277 277 277 278 278 278 279 280 281 283 284 285 285 284 285 285 286 286 286 286 286
283 283 283 283 282 283 282 282 281 279 279 279 278 278 277 277 277 277 277 277 277 277 277 279 280 282 283 284 285 284 284 284 284 285 285 286 287 287
285 284 284 283 283 282 282 282 280 280 279 278 278 278 278 277 277 277 277 277 277 276 276 279 280 281 283 282 283 284 284 283 284 284 284 284 284 285

GFSNE_850_thetae_045.txt.gz
Theta_e
296 295 294 294 294 293 293 292 291 291 291 290 289 289 289 288 288 288 288 287 286 285 286 286 286 287 287 288 288 289 290 290 290 290 290 289 289 289
293 293 292 292 291 291 291 291 290 289 288 288 288 287 287 286 286 286 286 285 284 284 284 285 285 287 286 287 287 288 289 290 290 289 289 287 287 289
291 291 291 291 290 290 289 289 289 288 287 287 286 285 285 285 285 284 284 284 284 284 284 284 285 285 286 286 286 286 288 289 288 287 287 286 285 287
291 290 290 289 289 289 288 287 286 286 285 283 283 283 283 283 282 283 283 283 283 284 285 284 285 285 286 286 286 287 287 287 287 286 286 286 285 286
290 289 289 288 288 287 286 286 285 284 283 283 282 281 281 282 282 282 282 282 283 283 283 284 284 284 284 285 285 286 287 288 287 286 285 285 285 286
290 288 286 287 287 286 286 285 284 284 283 282 281 281 281 282 281 282 282 282 282 282 282 283 283 284 284 285 285 286 287 287 287 287 286 287 287 286
289 287 286 287 286 286 285 284 284 283 283 281 280 281 281 281 282 282 281 280 281 281 281 282 282 283 284 284 284 285 286 288 288 288 288 288 287 287
289 286 286 286 286 285 284 284 283 282 280 279 281 280 281 281 281 280 280 280 281 282 282 283 283 283 283 283 284 285 286 287 288 287 287 286 287 289
288 286 286 286 285 285 284 284 282 281 278 280 280 280 281 280 280 280 280 281 282 283 283 284 284 284 284 284 284 284 285 286 286 286 286 286 286 289
288 286 285 286 284 284 284 283 282 280 279 279 280 280 279 279 280 281 282 283 283 282 283 283 284 284 284 284 285 285 285 285 285 286 286 285 286 290
286 285 284 284 284 284 283 282 281 280 279 278 278 279 280 280 281 281 281 281 282 282 283 284 284 284 284 285 286 286 286 285 286 286 286 286 287 290
286 285 284 284 283 283 282 281 280 280 280 280 279 279 279 280 280 280 280 281 282 282 283 284 285 285 285 285 285 285 285 286 286 286 286 286 288 290
285 284 283 283 283 282 281 281 280 280 280 279 279 278 279 279 279 280 280 281 281 282 284 285 285 285 284 285 284 284 285 287 287 287 287 285 289 290
285 284 283 283 282 281 281 281 280 280 280 279 279 279 278 278 278 279 280 280 281 282 284 286 286 285 285 284 285 285 286 287 287 287 287 286 289 290
285 285 283 283 282 281 281 281 281 280 280 279 279 279 278 278 278 278 279 280 281 283 284 285 285 285 284 284 285 285 286 287 287 287 287 286 287 289
285 285 283 283 283 282 282 281 281 281 280 280 279 279 278 278 278 278 280 280 280 282 283 284 285 285 286 285 285 285 286 287 288 287 287 287 288 289
284 284 283 283 283 282 282 282 281 281 280 280 279 279 278 278 278 278 279 279 279 280 282 283 283 284 286 285 285 285 286 286 288 287 287 287 288 289
283 283 283 282 282 282 282 282 281 281 281 280 280 279 278 277 277 278 277 278 278 280 280 281 282 284 285 285 285 285 287 287 287 286 287 287 288 288
283 282 282 282 281 282 282 282 281 281 281 280 280 279 278 277 277 277 277 277 278 279 279 280 281 282 283 283 285 285 286 286 287 287 287 287 287 288
283 283 282 282 282 282 282 282 281 281 281 280 280 279 278 277 277 277 277 277 277 277 278 279 280 281 282 283 284 284 285 286 287 286 286 286 286 287
284 283 283 282 283 283 282 282 282 281 281 280 279 279 278 277 277 277 277 277 277 277 277 278 280 282 283 284 285 284 284 285 285 286 287 286 286 286
285 285 284 283 282 283 282 282 282 282 282 280 279 279 278 278 277 277 276 276 276 277 276 279 280 282 282 283 284 284 283 283 284 285 285 286 287 286
286 285 285 284 284 283 283 282 282 282 282 281 280 279 278 278 277 277 276 276 276 277 275 278 279 281 281 282 282 283 283 284 284 283 284 284 285 286

GFSNE_850_thetae_048.txt.gz
Theta_e
293 293 292 292 293 292 292 292 291 291 290 289 289 288 288 287 287 286 286 286 285 285 284 284 285 286 287 287 288 288 289 289 290 291 292 292 291 292
292 292 291 291 291 291 291 290 290 289 288 288 287 286 285 283 283 283 283 283 283 283 284 284 284 285 286 286 286 287 287 287 288 290 290 291 290 291
291 290 291 290 290 290 289 289 288 287 286 286 285 284 283 282 282 282 282 282 283 283 283 284 284 284 284 285 285 286 286 286 287 288 289 290 289 289
291 291 290 290 289 289 288 287 286 286 285 284 283 283 282 281 282 282 282 282 282 282 282 283 283 283 284 284 284 284 284 285 286 287 287 288 288 286
292 291 290 289 287 287 287 286 286 285 284 283 283 282 280 281 281 281 281 282 282 282 282 282 282 282 283 284 284 285 285 285 286 287 287 287 287 286
292 291 290 289 286 286 286 286 285 284 284 283 282 280 280 281 281 281 281 281 280 281 281 281 281 282 282 283 283 284 284 284 285 287 287 287 287 286
291 290 289 288 286 286 286 285 284 284 283 282 281 279 280 280 280 281 280 280 281 281 282 283 283 283 283 283 283 283 283 284 286 287 288 288 288 288
290 290 289 287 286 286 286 285 284 284 282 281 279 278 280 280 280 280 280 280 281 282 282 283 283 283 284 284 284 283 283 284 286 287 288 288 287 286
290 290 289 287 285 285 285 284 284 283 282 280 278 279 279 279 279 280 280 281 282 282 281 282 283 284 284 284 284 284 284 285 284 286 287 286 286 285
289 289 287 285 285 285 284 284 283 282 280 279 278 278 278 279 279 280 281 281 281 281 282 282 283 284 284 284 285 285 285 285 285 285 285 286 285 286
289 288 286 285 284 284 284 283 282 281 280 280 279 278 278 279 280 280 280 280 280 281 282 282 283 284 285 284 285 285 285 285 285 286 285 285 286 286
287 287 285 284 284 283 283 282 281 281 280 280 280 279 278 278 278 279 279 279 280 280 282 282 284 284 285 285 284 284 284 284 285 286 286 286 286 286
286 286 286 284 283 283 282 282 281 281 280 280 280 279 279 279 278 278 279 279 280 280 282 283 283 284 284 284 284 284 285 285 286 286 287 286 287 286
287 286 286 285 284 283 282 281 281 281 280 280 280 279 279 279 279 278 278 279 280 280 282 283 284 284 284 284 284 284 285 286 287 286 287 287 286 288
286 286 285 284 284 283 283 282 281 281 280 280 280 279 279 278 278 278 279 280 280 280 282 283 284 284 285 285 285 285 285 286 287 287 287 287 286 288
286 286 285 284 284 283 283 282 282 281 281 280 280 280 279 278 278 278 278 279 279 280 281 282 283 284 285 285 285 285 285 285 287 287 287 287 288 288
286 286 285 284 284 283 283 282 282 281 281 280 280 280 279 279 278 278 277 277 278 279 280 282 283 284 285 285 284 285 286 286 287 287 287 287 287 288
285 285 284 283 283 283 282 282 281 282 281 280 280 280 279 278 278 278 277 277 277 278 279 280 281 283 284 284 284 285 285 287 287 286 287 287 287 287
286 285 284 283 283 282 281 281 282 282 281 281 281 280 280 279 278 277 277 277 277 277 277 278 280 281 283 283 284 284 285 286 286 286 286 287 287 286
286 286 285 284 284 282 282 281 282 281 281 281 281 280 279 279 278 277 277 277 277 277 277 278 280 281 282 283 283 284 284 285 286 286 286 286 287 286
287 286 285 285 284 283 282 282 282 282 282 282 281 281 279 279 278 277 277 277 277 277 276 279 280 282 283 283 284 284 284 285 285 286 286 286 286 286
286 287 286 285 285 284 283 282 283 282 282 282 282 281 280 279 278 277 277 277 277 276 276 278 280 282 282 283 283 283 283 283 284 284 285 285 285 286
286 287 286 286 285 285 284 283 282 282 282 282 282 281 280 279 278 278 277 277 277 277 276 276 279 280 281 282 282 283 283 283 283 283 284 284 285 286

GFSNE_850_thetae_051.txt.gz
Theta_e
291 290 290 291 291 291 291 291 291 290 289 288 288 287 286 285 284 283 283 283 283 283 283 283 284 285 286 286 287 287 288 289 289 290 290 290 291 293
292 290 290 290 290 290 290 290 289 288 288 287 286 285 284 283 282 282 282 283 282 282 282 283 283 284 285 286 286 286 287 288 288 289 289 289 290 292
294 291 291 291 290 290 289 289 288 287 286 286 285 284 283 282 282 282 282 282 282 282 282 282 282 283 283 283 283 284 285 286 286 287 288 288 290 291
294 292 291 291 290 289 289 287 286 286 286 285 284 283 282 282 281 282 282 281 281 282 282 281 282 282 282 282 283 283 284 284 284 284 285 286 287 289
293 292 292 291 290 290 287 286 286 286 285 284 284 283 282 281 281 281 281 281 281 280 281 281 281 282 281 282 282 283 283 284 284 284 284 285 286 287
293 291 292 291 290 289 287 286 286 285 284 284 283 282 281 281 280 280 280 279 279 281 281 282 282 283 283 283 282 282 282 283 284 284 284 285 286 287
292 290 290 290 290 288 287 285 285 285 284 283 282 281 281 279 279 279 279 279 281 281 282 282 282 282 283 283 284 283 283 283 283 283 284 285 287 287
291 290 290 290 289 288 286 285 285 284 283 283 282 281 280 279 278 279 279 280 280 281 281 281 281 282 284 284 284 284 284 284 283 283 283 285 286 287
291 290 290 289 289 286 285 285 285 284 283 282 281 280 279 279 278 278 279 280 280 280 280 281 282 283 284 284 284 284 284 285 284 285 285 284 286 287
290 289 287 288 287 286 285 284 284 283 282 281 280 280 280 279 279 279 279 279 279 280 280 281 282 283 284 284 284 284 285 285 285 285 285 285 285 286
289 288 287 287 286 284 284 284 283 283 282 281 280 280 279 279 278 278 278 278 279 279 280 281 282 283 284 284 284 284 285 284 284 284 284 286 285 285
288 288 287 286 285 284 283 283 282 282 281 281 280 280 280 279 279 278 278 278 278 278 280 280 281 282 283 284 284 284 284 284 284 285 285 286 286 286
288 287 287 286 286 285 284 283 282 281 281 281 280 280 280 279 279 278 278 278 278 278 279 280 281 282 283 284 284 285 284 284 285 286 287 286 286 286
288 287 286 286 286 285 284 283 282 282 281 281 280 280 280 279 279 278 278 278 279 279 279 280 281 282 282 284 284 285 285 285 286 286 286 286 286 286
287 287 287 286 286 285 284 283 283 282 281 281 281 280 280 280 279 278 278 278 278 279 279 280 281 282 282 284 284 284 284 285 286 287 287 286 286 287
287 287 287 286 286 285 284 284 283 283 282 281 281 280 280 280 279 278 278 278 278 278 279 280 281 282 283 284 284 284 285 285 286 287 286 286 287 288
287 287 287 285 286 285 284 284 283 282 282 281 281 280 280 280 280 278 278 278 277 277 278 279 281 281 283 284 284 284 285 286 287 286 286 286 287 288
286 286 286 286 285 285 284 283 283 282 281 281 281 280 280 280 280 278 278 277 277 277 277 277 279 281 283 284 284 284 285 285 286 286 286 286 286 287
287 286 286 286 285 285 284 283 282 281 281 281 281 281 280 280 279 278 278 278 278 277 276 277 279 280 282 283 283 283 284 285 285 285 286 286 286 286
287 286 286 286 286 285 284 283 282 281 281 281 281 281 280 280 279 278 278 278 277 277 277 278 280 281 282 282 283 283 283 284 285 285 285 285 285 286
286 286 287 286 286 286 285 284 282 282 281 281 281 281 280 280 279 278 278 277 277 277 277 277 279 281 282 283 283 283 283 283 284 284 285 285 285 285
286 286 287 286 286 286 285 284 283 282 282 282 282 281 281 280 280 278 278 278 277 277 277 276 278 280 281 282 283 283 283 283 283 283 284 285 285 285
286 286 286 286 286 286 286 285 284 283 282 282 282 282 281 281 279 279 278 278 277 277 277 277 277 279 280 281 282 283 283 283 283 283 283 283 283 285

GFSNE_850_thetae_057.txt.gz
Theta_e
292 292 292 293 292 291 290 292 292 292 291 290 289 288 286 286 285 284 283 283 282 283 283 283 283 283 283 285 285 286 287 288 288 289 289 289 290 291
293 293 293 293 292 291 291 290 291 291 290 290 289 287 286 285 284 283 282 282 282 282 282 282 282 282 282 283 284 284 285 286 286 287 288 288 289 290
293 294 293 293 292 291 291 291 290 289 290 289 287 286 285 284 284 283 282 282 282 282 282 282 281 280 280 281 282 282 283 284 284 285 286 287 288 289
293 293 293 293 292 291 291 291 290 289 289 288 287 286 284 284 283 282 282 282 281 281 281 281 281 281 281 281 282 282 283 283 284 284 284 286 286 287
293 293 292 292 292 290 290 290 289 289 288 286 286 286 284 284 283 282 281 281 281 281 281 281 281 281 282 282 282 282 283 283 283 283 283 283 283 284
293 293 292 292 291 291 290 289 289 289 287 286 286 285 284 284 282 281 281 281 281 281 281 281 281 281 281 281 282 282 283 283 284 283 283 283 282 282
293 292 292 291 291 290 290 289 288 288 287 286 286 285 284 284 283 281 281 281 281 281 282 282 281 281 282 282 282 283 283 284 284 284 284 283 283 283
292 292 291 291 290 289 289 288 288 287 287 286 286 285 284 283 281 280 281 281 281 282 281 281 281 281 282 282 283 284 284 284 284 284 284 284 284 284
292 292 291 291 290 289 289 288 287 287 287 285 284 284 283 282 280 280 281 281 281 281 280 281 281 281 282 282 283 284 284 284 284 284 285 285 285 285
290 291 291 291 290 289 289 288 287 287 285 284 284 283 283 282 280 280 280 280 280 280 280 280 281 282 282 282 283 284 284 284 284 284 285 285 284 284
290 290 290 291 290 289 289 288 287 286 285 284 283 283 282 281 280 280 280 281 280 280 280 280 281 281 281 282 283 283 283 284 284 285 284 284 284 284
290 290 291 290 290 289 288 288 287 286 286 285 283 282 282 281 280 280 280 280 280 280 280 279 280 280 280 282 283 283 283 284 285 285 284 285 285 286
290 290 290 290 290 289 287 287 287 286 286 285 283 282 282 281 281 280 280 279 279 280 280 278 279 279 280 280 281 282 283 284 284 285 285 286 286 286
289 289 289 289 289 289 287 287 286 286 285 285 284 282 282 281 281 281 280 280 279 279 278 278 278 278 279 279 281 282 283 283 284 285 286 286 286 286
290 290 289 288 288 288 288 287 287 286 286 285 284 283 282 282 281 281 280 280 280 279 278 278 277 278 279 279 280 281 282 284 284 285 286 286 286 287
285 287 288 288 288 288 288 287 287 287 286 285 284 283 282 282 282 281 280 280 279 279 279 278 277 277 278 279 280 281 282 283 284 285 286 286 286 286
284 285 286 287 287 287 287 286 286 286 286 285 284 284 283 282 281 281 280 279 278 279 279 279 278 279 280 280 281 282 283 283 284 284 285 286 286 286
283 284 286 286 286 287 287 286 286 286 286 285 284 284 283 282 281 280 280 279 279 278 278 278 278 279 281 282 283 282 282 283 284 285 285 284 285 285
284 284 285 286 287 287 287 286 286 286 286 285 284 283 282 282 281 281 280 279 278 278 278 278 277 279 280 282 281 283 282 283 283 283 284 285 285 285
284 285 286 287 287 286 286 285 286 286 286 285 284 283 282 281 281 280 280 279 278 278 278 278 277 278 279 280 280 282 282 282 283 283 284 285 285 285
282 283 284 284 285 284 284 284 285 285 285 285 284 283 282 281 281 280 280 280 279 278 278 278 278 278 280 281 281 282 282 282 282 282 283 284 284 285
279 280 281 283 283 284 285 285 285 285 285 285 284 283 282 281 281 281 280 280 278 278 278 278 278 277 279 280 281 281 282 282 282 282 282 282 283 283
277 279 279 280 282 283 283 284 284 284 285 284 284 283 282 281 281 281 280 280 279 278 278 278 278 277 278 279 280 280 281 282 282 281 282 282 282 282

GFSNE_850_thetae_063.txt.gz
Theta_e
307 305 300 297 298 299 299 298 297 297 297 296 296 296 295 294 293 292 290 289 288 287 286 285 283 283 283 283 283 283 285 286 286 287 287 288 289 290
304 303 303 298 299 298 298 297 297 296 296 296 295 295 294 293 293 291 290 289 288 288 287 285 284 283 283 283 283 283 283 284 285 286 286 287 287 288
304 302 299 299 299 299 298 297 296 296 295 295 295 294 293 293 293 292 291 290 289 288 286 285 284 283 283 283 283 282 282 283 284 285 285 286 287 287
302 299 299 299 298 298 297 296 296 295 295 294 294 293 293 293 292 291 291 289 288 288 286 285 284 284 284 283 283 282 282 282 283 283 283 284 285 285
299 299 299 298 298 298 297 296 296 295 294 294 293 293 293 292 291 291 290 289 288 287 286 285 285 285 284 284 284 284 284 283 282 282 282 282 283 284
299 299 298 298 297 297 297 296 295 295 294 293 293 292 292 291 291 290 290 289 288 287 286 286 286 285 285 285 285 285 284 284 283 282 282 283 283 284
298 298 298 297 297 296 296 294 294 294 294 293 292 292 291 291 290 290 290 289 288 287 286 286 286 286 285 285 285 285 285 285 284 283 283 284 284 284
298 298 297 297 297 296 296 295 294 292 292 292 292 291 291 290 290 289 289 288 287 286 286 286 286 285 285 285 285 285 284 284 283 283 284 284 284 284
296 296 296 296 295 295 295 294 294 293 292 291 291 290 290 289 289 289 288 287 287 286 285 285 285 285 285 285 285 285 284 284 283 283 283 284 284 285
294 294 294 294 294 294 293 293 293 293 292 292 291 290 289 288 288 288 287 286 285 284 285 285 285 285 285 284 284 284 285 284 283 284 283 284 284 285
292 292 293 293 293 292 292 292 292 292 292 291 291 290 289 288 287 286 286 285 284 284 285 285 285 284 284 283 284 284 284 284 284 284 284 285 285 286
290 290 290 291 292 292 291 291 291 291 290 291 291 290 289 288 286 286 285 284 283 284 284 285 285 284 283 283 284 284 284 284 284 284 284 285 286 286
284 284 284 286 286 286 288 290 290 290 290 290 290 290 289 287 286 285 284 284 283 284 284 284 284 283 283 283 283 283 284 284 284 284 285 286 286 286
282 282 282 281 282 282 283 283 284 287 288 290 289 290 289 287 286 286 285 285 284 284 284 284 283 283 282 282 283 283 283 283 284 284 286 286 286 286
280 280 280 281 282 284 284 284 285 285 287 288 288 289 288 287 287 286 286 285 284 284 284 283 282 282 282 282 282 282 283 283 284 286 286 285 285 286
279 280 281 284 284 285 285 286 286 286 286 288 288 288 288 287 286 286 285 285 284 283 283 283 283 282 281 281 282 282 282 283 284 286 285 284 285 286
279 280 283 284 284 285 286 286 286 287 287 287 288 288 288 287 287 286 285 284 284 284 283 283 283 283 282 282 282 282 283 283 285 284 284 285 285 286
279 281 281 281 282 282 283 285 287 287 287 288 288 287 287 287 286 286 285 285 284 283 283 283 283 283 283 283 284 284 284 284 283 283 284 284 284 285
279 279 279 279 279 280 282 283 286 287 288 287 287 286 287 286 286 286 285 284 284 283 283 283 283 283 283 283 283 284 283 283 283 283 283 283 283 285
278 278 277 277 277 277 280 282 284 286 287 286 286 286 286 286 286 285 285 284 283 283 283 283 283 283 283 283 282 281 282 283 283 283 282 283 284 285
276 276 276 275 275 275 277 280 282 283 285 286 286 286 285 286 285 285 285 284 283 283 283 283 283 282 282 281 280 282 284 283 283 282 282 282 283 285
274 274 274 273 273 273 275 277 279 281 283 284 285 285 285 285 285 285 284 283 283 283 282 282 283 281 281 281 282 283 283 283 282 282 283 283 282 282
272 272 271 271 271 272 272 274 277 278 279 280 283 285 285 285 285 284 284 283 283 282 282 282 282 282 281 281 281 281 282 282 283 283 283 284 282 282

GFSNE_850_thetae_069.txt.gz
Theta_e
313 312 311 308 306 306 306 304 301 300 301 300 299 298 297 297 296 296 296 295 294 293 293 292 292 291 289 288 287 285 284 284 284 286 287 287 288 288
312 311 310 307 306 304 304 304 301 299 299 299 298 297 296 295 295 295 294 294 293 293 293 293 292 291 289 288 286 285 285 285 284 284 286 286 287 288
311 310 307 305 305 304 303 301 299 299 298 298 298 297 296 295 294 294 294 294 293 293 292 292 291 291 289 288 286 285 285 285 285 285 285 286 286 287
308 306 304 304 303 301 300 299 299 299 298 298 298 297 296 295 295 295 294 294 293 293 292 291 291 290 289 286 286 286 286 285 285 285 285 284 284 284
306 304 304 303 301 300 299 299 299 298 298 298 297 297 296 296 295 295 294 294 293 292 291 290 290 289 288 288 286 286 286 285 285 285 285 285 284 284
304 303 302 300 299 299 299 299 298 298 298 297 297 297 297 296 295 294 294 293 293 291 290 290 290 289 289 287 286 286 286 285 285 285 284 284 284 284
302 300 299 299 298 298 298 298 298 297 297 297 297 297 296 295 295 294 293 292 291 291 290 290 289 288 287 286 286 286 285 285 285 285 284 284 284 284
299 297 297 297 297 296 296 296 295 294 295 295 294 294 295 295 294 294 293 292 291 291 289 289 288 288 287 286 286 285 285 285 285 285 284 284 284 283
294 293 293 293 293 293 292 293 293 294 294 293 292 292 292 292 293 293 292 292 291 292 289 288 288 287 287 286 285 285 285 285 284 284 284 283 283 283
292 291 291 291 291 291 291 290 289 288 288 288 289 289 290 291 291 291 291 291 291 291 289 288 287 287 286 285 285 285 285 284 283 284 283 283 284 284
291 290 288 286 285 284 284 284 284 284 283 282 282 281 282 283 285 289 290 290 291 289 289 288 287 286 285 284 285 285 285 284 283 283 283 284 284 284
287 285 285 284 283 283 282 282 282 283 284 284 284 283 283 282 282 282 287 290 290 289 289 288 285 284 284 284 284 284 283 283 283 282 283 283 283 284
285 285 284 283 282 282 281 282 283 283 284 285 285 286 285 285 284 286 286 289 289 289 289 287 285 284 284 284 284 283 283 282 282 282 282 283 283 285
283 283 282 282 281 281 281 281 281 282 283 283 283 285 286 285 285 285 286 288 289 289 288 285 284 284 283 284 283 283 283 282 281 282 282 283 285 285
282 281 281 280 280 281 280 279 279 281 282 283 283 283 285 286 286 286 286 287 289 288 287 286 285 284 284 284 283 282 282 282 282 282 282 283 284 284
281 281 280 280 280 279 279 279 278 279 280 281 283 283 285 286 287 286 286 287 288 287 286 286 285 285 284 284 283 282 282 282 283 283 283 284 284 284
280 279 279 279 279 279 278 278 278 277 279 280 283 283 286 286 287 287 287 287 287 286 286 286 285 285 284 283 283 283 282 283 283 283 283 283 283 283
279 279 278 278 278 277 277 277 276 276 277 278 280 283 282 285 286 287 287 287 286 286 286 286 285 284 283 283 283 283 282 283 283 283 283 282 283 283
278 278 277 277 276 275 275 275 275 275 275 276 278 281 282 284 286 287 287 286 286 286 286 285 285 284 283 283 283 282 283 283 282 281 281 282 282 283
277 276 275 275 274 274 274 273 273 274 274 275 276 278 280 281 285 286 287 286 286 286 285 285 285 284 283 283 283 283 283 282 282 282 282 282 282 282
275 275 274 274 273 273 272 272 272 272 272 274 275 276 277 280 281 284 285 285 285 285 285 285 285 283 282 283 283 283 282 282 282 282 282 282 282 283
274 273 273 272 272 271 271 271 271 271 271 272 273 275 276 277 279 280 283 284 286 285 285 285 284 283 283 283 282 281 281 281 281 282 282 282 283 283
272 272 271 271 271 271 270 270 270 270 270 270 271 272 274 276 277 278 281 284 285 285 285 284 283 282 282 282 281 281 281 281 281 282 281 282 282 283

GFSNE_850_thetae_072.txt.gz
Theta_e
317 316 314 313 312 311 308 307 307 305 304 304 302 301 300 298 298 297 296 295 295 296 295 294 293 292 292 292 291 290 288 286 286 286 287 287 287 288
317 314 313 312 312 309 307 306 305 304 301 301 300 299 298 298 297 296 295 295 294 294 294 293 293 292 292 291 290 289 288 286 286 286 286 286 287 287
314 313 312 311 309 307 305 304 303 302 300 299 299 298 298 298 298 297 295 294 294 294 294 294 293 292 291 291 291 289 288 286 286 285 286 286 286 287
312 311 310 307 305 304 304 302 300 299 299 299 299 298 298 297 297 296 296 296 295 295 295 294 293 293 291 291 290 289 287 287 286 286 285 285 285 286
310 309 306 304 304 303 302 299 299 298 298 298 298 298 297 296 296 297 296 296 295 295 294 294 293 291 291 290 289 288 288 287 286 286 285 285 285 284
308 305 304 303 303 300 299 298 298 298 297 297 298 297 297 297 297 296 296 296 295 294 294 293 291 291 290 290 289 289 288 286 286 285 285 285 285 284
304 303 303 300 298 298 298 298 297 296 296 295 295 295 294 294 294 294 293 294 294 293 293 292 292 292 290 289 288 287 286 286 285 285 285 285 284 284
303 302 299 297 297 297 296 296 296 295 295 294 294 293 293 292 291 291 292 292 292 291 292 292 292 290 289 288 288 287 286 286 285 285 285 284 283 284
301 296 295 294 294 293 293 292 292 292 292 292 290 288 286 284 283 285 287 289 290 291 291 291 291 291 289 287 287 287 286 285 285 285 284 283 284 283
294 292 291 290 290 290 289 288 286 285 284 284 283 283 283 283 282 282 281 282 285 288 290 290 289 291 289 287 287 286 284 285 285 284 284 283 283 283
292 291 291 289 287 285 285 284 284 284 283 283 283 283 283 284 285 284 284 283 284 283 287 290 289 290 288 287 286 284 284 285 284 284 283 283 283 283
292 289 286 285 284 284 283 283 283 283 282 282 281 282 283 283 285 286 285 284 285 285 286 288 289 289 288 285 284 284 284 284 283 283 282 282 282 282
287 285 284 283 282 282 282 282 281 281 281 280 281 282 283 284 284 284 285 285 285 285 286 288 289 288 285 284 284 283 283 283 283 282 281 282 282 282
285 283 282 282 281 281 281 281 281 280 280 280 280 281 283 284 284 284 285 286 286 285 285 287 288 287 285 284 283 283 283 283 282 281 281 281 282 284
282 281 281 281 280 280 280 280 280 279 279 279 279 280 281 283 284 285 286 286 286 285 286 287 287 285 285 284 284 284 283 282 282 282 282 282 283 284
281 280 280 280 280 280 279 279 278 278 278 277 278 278 280 283 283 284 285 286 286 286 286 287 286 285 285 285 284 284 282 282 282 282 283 283 284 283
280 280 279 279 279 279 278 278 277 277 277 276 277 277 279 281 283 284 285 286 287 286 286 286 286 285 285 285 284 283 282 282 282 283 283 283 283 283
279 279 279 278 278 277 277 276 276 275 275 275 275 276 277 280 282 284 286 287 287 286 286 286 286 286 285 284 283 283 283 282 282 283 282 281 282 282
278 278 277 276 276 276 275 275 274 273 273 273 273 274 275 278 280 281 283 285 286 287 286 286 286 285 284 284 283 283 283 282 283 282 282 282 282 282
277 276 276 275 275 274 274 273 273 272 272 272 272 273 274 276 278 280 280 282 284 286 285 285 285 285 284 284 283 282 283 283 283 282 282 282 282 282
275 275 274 274 273 273 272 272 272 272 272 271 272 272 273 274 276 277 279 280 282 284 285 285 285 285 284 283 282 282 283 282 281 282 282 281 282 282
274 273 273 272 272 271 271 271 271 271 271 271 271 271 271 272 274 275 277 278 281 283 284 285 285 285 283 282 283 282 281 281 281 281 282 281 281 282
272 272 271 270 270 270 270 270 270 271 270 270 270 270 270 271 272 274 275 277 278 282 283 284 284 284 283 283 282 281 281 281 281 281 282 281 281 282

GFSNE_850_thetae_075.txt.gz
Theta_e
320 320 319 317 315 314 314 312 310 307 306 306 306 304 303 301 299 298 298 296 296 296 295 295 295 295 294 293 293 292 291 291 290 289 288 288 288 288
321 320 317 316 313 313 312 310 307 306 304 304 304 303 302 299 298 298 298 298 297 296 294 294 294 294 294 293 293 292 291 290 290 289 288 288 288 288
320 319 316 314 313 311 310 308 307 305 304 303 302 301 299 299 298 298 297 297 297 296 295 295 294 295 294 294 293 292 291 291 289 289 287 288 288 287
319 318 314 312 311 309 307 305 304 304 301 299 299 298 298 297 297 297 296 296 296 296 296 296 295 295 294 294 292 291 291 290 289 288 287 286 286 287
317 314 312 310 308 307 305 304 303 301 300 299 298 297 297 297 297 296 296 295 295 296 296 295 295 294 294 294 293 293 290 290 289 288 287 286 286 285
314 311 310 308 305 304 304 302 301 300 298 298 298 297 296 295 295 294 294 294 294 293 293 293 293 293 293 293 292 292 291 289 288 288 287 286 286 285
310 309 306 305 304 303 302 300 298 297 297 296 296 295 295 294 293 292 291 290 289 289 289 290 290 291 292 291 291 292 290 289 289 287 286 286 285 285
308 306 305 303 303 301 298 296 296 296 295 295 294 292 291 290 286 284 283 283 283 284 286 287 289 291 290 291 289 291 288 288 287 286 286 285 285 285
304 303 303 301 298 297 296 295 294 293 291 290 288 285 284 283 283 283 284 284 284 283 283 282 285 286 288 290 290 290 288 287 286 286 285 285 285 284
302 300 298 295 294 292 291 290 289 287 285 284 284 283 283 282 282 282 283 284 285 285 284 284 283 284 286 289 288 289 286 287 287 285 285 285 284 284
297 294 293 292 291 290 287 285 284 284 284 284 283 283 282 282 282 283 283 284 284 285 284 284 284 285 286 288 288 288 286 287 285 284 285 284 284 283
294 293 291 290 286 284 284 283 284 284 284 283 282 282 281 281 281 283 283 283 283 284 285 285 284 285 286 286 288 287 287 284 284 284 284 283 283 282
292 291 287 285 283 283 283 282 282 281 281 281 281 281 280 280 280 282 283 283 283 284 285 285 284 285 286 287 286 285 284 284 284 283 283 283 282 281
289 286 283 282 282 281 281 280 280 280 280 280 280 279 279 279 280 280 283 284 284 284 285 285 285 284 286 286 284 284 283 283 283 282 281 281 281 281
286 283 281 281 280 280 280 280 279 279 279 279 279 279 278 278 279 279 282 283 284 285 286 285 285 285 286 286 285 283 283 283 282 282 282 282 282 282
282 281 280 280 279 279 279 279 279 278 278 278 278 278 278 278 278 278 281 283 284 286 286 286 285 286 285 285 284 284 284 283 282 282 282 282 282 283
280 280 279 279 279 279 278 278 277 277 277 276 276 276 277 277 277 277 279 282 283 285 286 286 286 286 285 285 284 284 284 283 282 282 282 282 283 283
279 278 278 278 277 277 277 276 276 275 275 275 274 275 275 275 276 276 277 280 281 284 285 286 286 285 285 285 284 284 284 282 282 282 282 282 281 281
278 278 277 276 276 275 275 274 274 273 273 273 273 274 274 274 274 275 276 278 281 282 284 286 286 286 286 285 285 284 283 282 282 282 282 282 282 282
277 276 276 275 275 274 273 273 272 272 272 272 272 273 273 272 273 273 275 276 278 280 283 284 286 285 285 285 284 283 283 282 282 282 282 282 282 282
276 275 274 274 273 272 272 271 271 271 271 272 272 272 271 271 272 272 273 275 276 278 280 283 284 285 285 285 284 283 282 282 282 282 281 282 281 281
274 273 272 272 271 271 270 270 270 271 271 271 271 271 271 271 271 271 272 273 275 276 279 281 284 284 285 284 284 283 282 282 281 282 281 281 281 281
272 271 271 270 270 270 269 270 270 270 270 270 270 270 270 270 270 270 271 272 274 275 277 279 283 284 284 284 283 282 282 281 281 281 281 282 281 281

GFSNE_850_thetae_081.txt.gz
Theta_e
319 320 321 321 318 318 319 319 316 315 314 313 313 311 310 307 306 304 303 302 301 299 298 298 297 297 296 296 296 294 294 294 294 295 295 295 295 295
321 321 321 321 320 319 318 315 316 315 313 312 310 310 308 306 305 304 302 301 299 298 298 297 297 297 297 297 296 295 295 294 294 294 294 295 295 295
320 317 319 320 320 319 319 316 315 313 312 310 309 308 306 305 304 301 299 299 298 298 297 297 296 296 296 296 296 296 296 296 295 295 295 294 294 294
321 320 318 318 319 318 317 315 314 312 311 310 308 306 306 304 302 300 299 296 296 294 293 292 292 292 291 291 291 292 292 294 295 295 295 294 294 294
320 319 319 320 319 317 315 313 312 311 310 308 306 304 303 301 300 298 296 295 293 291 289 288 288 287 287 287 286 286 286 286 289 293 293 291 293 293
321 319 318 319 319 315 312 312 310 309 308 305 304 302 300 299 297 295 293 290 288 288 288 288 288 287 287 286 286 286 286 285 285 287 290 291 292 291
319 318 318 317 316 313 311 309 308 305 304 303 301 300 297 296 294 291 288 286 286 287 287 287 287 287 286 286 286 285 285 285 285 289 292 291 291 291
319 318 314 313 311 310 308 305 305 302 300 299 297 296 294 291 288 285 285 284 285 285 285 286 286 286 285 285 285 285 285 285 284 288 291 290 291 290
314 312 311 309 306 304 303 301 300 299 298 296 293 290 288 285 284 284 284 283 284 284 284 284 285 285 284 284 284 285 285 284 283 284 288 289 289 289
309 307 307 304 303 302 300 298 296 294 292 290 287 285 284 284 283 283 283 283 283 284 284 284 284 284 285 285 284 285 284 284 284 287 288 289 289 288
305 303 301 300 299 298 295 293 291 289 286 284 284 283 283 283 282 282 282 282 283 283 283 282 284 284 285 285 285 285 284 285 285 287 287 288 288 286
302 300 298 297 295 293 291 287 285 284 283 283 282 282 282 282 281 281 281 281 281 281 283 282 282 282 283 285 286 286 285 284 286 287 288 287 286 286
298 296 295 294 292 289 286 284 283 283 282 282 282 281 281 281 281 281 281 280 279 279 280 279 280 281 282 283 285 285 285 285 285 287 286 285 285 285
295 293 292 290 287 285 283 282 282 282 281 281 280 281 282 281 281 280 279 279 278 278 278 278 278 279 281 282 284 285 286 284 285 286 285 285 284 284
292 291 289 286 284 282 282 282 281 281 281 280 280 282 281 279 278 278 278 278 278 278 278 277 278 280 280 282 283 285 285 285 284 284 284 284 284 284
290 288 285 283 282 281 280 280 279 279 278 278 278 278 277 277 278 278 277 277 277 278 277 277 277 279 282 282 283 285 285 284 285 284 284 284 283 283
287 283 282 282 281 280 279 278 278 277 278 278 277 277 278 277 275 275 275 275 275 276 277 276 276 278 281 283 284 285 285 284 284 284 283 283 283 283
283 283 283 281 280 279 278 277 277 276 275 276 275 274 274 274 273 272 273 272 272 273 274 275 275 276 280 283 284 285 284 284 284 283 283 284 284 284
281 280 279 278 278 276 275 274 273 273 274 273 271 270 271 270 270 270 270 270 271 271 272 273 274 275 277 280 284 284 284 284 284 284 283 283 284 284
278 277 276 275 274 273 272 272 271 270 270 270 269 269 269 268 268 269 269 269 269 270 270 272 273 274 274 275 278 283 284 284 284 284 284 283 283 283
274 273 272 272 271 271 270 269 269 269 269 269 268 268 267 267 267 268 268 268 268 269 270 271 271 273 275 276 278 282 285 284 284 284 283 283 283 283
273 271 270 269 269 268 268 267 267 267 266 266 266 266 266 266 266 266 267 267 268 268 269 269 270 271 273 275 278 282 284 284 283 283 282 282 283 283
270 270 269 269 268 267 266 265 265 265 265 266 266 266 266 266 266 266 266 267 267 267 268 268 270 271 272 275 278 281 284 284 282 282 282 282 281 281

GFSNE_850_thetae_084.txt.gz
Theta_e
319 319 321 319 320 320 321 320 317 315 314 315 316 315 313 312 312 310 308 305 304 304 304 302 301 301 300 299 298 298 297 297 296 295 294 294 297 297
317 319 320 321 321 320 320 321 318 318 315 314 314 315 312 311 309 308 306 305 304 303 302 302 301 299 298 297 296 296 296 296 296 295 294 294 295 297
318 319 319 320 320 320 318 318 317 317 314 314 313 313 311 310 308 306 304 303 301 300 300 299 299 298 296 296 296 295 295 295 295 295 296 296 296 296
319 320 320 321 321 319 318 317 316 317 316 316 313 311 310 309 306 306 303 300 299 299 296 295 293 292 292 291 290 290 289 288 288 289 290 292 294 296
319 321 320 320 320 320 319 319 319 316 315 313 311 310 308 306 305 303 302 300 298 296 294 291 289 288 288 288 288 288 287 287 286 286 286 286 286 289
321 321 320 320 320 319 318 317 316 314 311 311 311 306 305 304 302 301 298 296 294 291 289 288 288 288 288 288 288 287 287 286 286 286 286 285 285 285
321 321 320 320 318 318 316 314 312 310 311 309 304 303 301 300 298 296 294 292 290 289 288 288 288 288 288 288 288 287 287 285 285 285 285 285 285 287
322 320 319 318 315 314 312 310 308 308 305 303 301 300 299 295 294 292 290 289 289 288 288 287 287 288 289 288 287 286 285 285 284 285 285 285 284 287
319 318 316 314 311 309 307 304 303 302 301 300 298 297 294 291 289 288 288 288 288 288 287 287 288 288 288 288 287 286 285 284 285 285 284 284 283 290
314 313 309 307 305 304 303 302 301 300 299 297 294 291 289 286 285 284 285 285 285 286 286 287 288 288 287 288 287 286 285 285 285 285 285 285 286 286
308 306 304 303 302 300 299 299 298 296 291 289 288 288 285 284 284 283 283 285 286 286 286 286 286 287 287 286 286 287 286 286 286 285 285 286 287 288
304 302 300 299 299 298 296 293 290 289 288 285 284 284 284 283 283 282 281 282 283 284 286 285 285 284 285 286 286 286 286 287 286 286 285 286 287 287
300 299 297 296 294 292 289 288 286 285 283 283 282 282 282 282 281 281 281 280 281 282 283 281 282 282 282 283 283 284 284 286 287 287 286 287 287 287
298 296 294 292 290 287 286 284 283 284 284 283 282 282 282 282 282 284 282 280 278 278 278 278 278 279 280 281 282 283 284 285 287 286 286 286 286 286
294 293 292 291 288 286 286 284 282 282 281 281 280 280 279 279 278 278 278 278 278 278 278 277 277 277 279 280 281 282 282 284 286 286 286 286 285 285
291 290 288 285 282 281 281 281 280 280 279 278 278 278 278 277 277 277 277 277 276 277 277 276 276 277 278 279 280 281 282 284 287 286 286 286 285 285
287 284 282 281 281 281 280 279 278 278 277 277 276 276 276 276 276 275 275 276 276 277 277 276 276 277 277 278 279 280 282 284 286 287 286 285 285 285
283 282 281 280 280 279 279 278 277 277 276 275 274 274 274 274 274 274 274 274 275 275 275 276 276 276 277 279 279 281 283 285 286 286 286 286 285 285
280 280 279 278 277 277 277 276 275 275 273 273 273 273 273 272 272 273 273 274 274 274 274 274 274 275 277 278 279 279 283 285 286 286 285 285 285 285
278 277 276 276 275 275 274 274 273 272 272 271 271 270 270 270 271 271 272 272 272 272 272 273 274 275 275 276 275 278 281 283 285 285 285 285 285 285
275 275 274 273 273 272 271 271 270 270 270 269 269 269 269 269 269 270 270 270 270 271 272 273 273 273 272 273 274 276 279 282 284 285 285 285 285 285
272 271 271 270 270 269 269 269 269 269 268 268 268 268 268 268 268 268 269 269 270 270 271 271 272 272 273 274 275 276 277 282 284 285 285 284 285 285
269 269 269 268 268 268 268 267 267 267 267 266 266 267 267 267 267 267 268 268 269 269 270 270 271 272 272 273 274 276 276 280 284 284 284 283 283 282

GFSNE_850_thetae_087.txt.gz
Theta_e
319 319 321 321 321 321 321 320 319 319 318 320 318 316 315 315 315 315 313 311 311 310 308 306 305 304 303 302 302 301 301 300 299 299 299 298 297 296
320 319 321 320 321 321 321 321 320 320 317 317 316 317 316 314 314 315 312 310 309 308 306 306 305 303 303 302 301 300 298 297 296 296 296 296 296 295
320 320 321 322 321 320 320 320 319 320 318 317 317 316 316 314 313 308 308 309 307 306 307 305 303 301 301 300 300 298 296 294 294 293 293 292 293 292
320 321 321 321 321 320 320 320 320 319 319 318 316 316 316 313 309 309 309 307 305 306 303 301 302 299 297 295 293 292 291 290 289 289 288 288 287 287
321 320 320 320 320 321 321 320 320 319 318 316 315 315 314 311 309 309 307 306 304 301 301 300 298 295 293 291 289 289 289 289 289 288 288 287 287 287
320 320 318 320 321 322 320 320 319 318 317 314 312 311 310 309 308 306 305 304 302 299 298 295 292 290 289 289 289 289 289 289 288 287 287 286 286 286
320 321 321 321 321 321 320 319 319 317 314 311 310 309 308 307 304 303 301 300 297 295 294 292 291 291 289 289 288 289 290 291 290 287 286 286 285 285
322 321 321 320 320 320 320 317 316 312 310 309 307 306 304 303 300 300 298 295 293 292 291 290 290 289 288 288 288 289 290 289 287 286 285 285 285 285
321 319 320 318 317 315 314 310 308 305 303 303 302 301 300 299 297 294 293 291 290 290 289 289 289 288 288 288 289 289 289 288 287 286 285 285 285 285
319 317 314 312 310 308 305 304 302 301 300 300 299 298 296 293 290 289 288 288 289 287 287 287 287 288 288 288 289 288 288 288 286 286 286 286 286 285
313 310 307 305 303 302 301 301 300 299 297 296 294 291 289 286 285 287 286 283 284 286 287 287 287 287 286 287 288 287 287 287 287 287 287 287 285 285
307 305 302 301 300 300 299 297 294 293 291 288 286 287 288 287 286 284 282 282 284 284 285 285 285 286 285 285 285 286 287 287 285 286 286 286 286 286
303 301 299 298 297 296 294 291 288 287 288 286 284 283 283 283 283 283 282 282 282 282 283 283 282 282 283 283 282 283 283 283 283 285 286 287 286 287
300 298 296 295 293 292 290 290 289 285 285 285 284 284 283 283 282 282 281 280 280 280 279 279 279 279 280 280 281 281 281 282 283 283 285 287 287 286
296 294 293 293 292 291 288 284 283 282 282 282 282 282 281 281 280 280 280 280 279 279 279 279 279 278 278 278 279 280 280 281 282 283 284 287 287 286
292 292 290 287 284 283 283 282 281 281 280 280 280 279 279 279 278 278 278 278 278 278 278 278 278 278 278 278 278 279 280 281 281 282 283 287 286 286
288 285 284 283 283 282 282 281 280 279 279 278 278 277 277 277 277 277 276 276 276 276 277 277 278 278 278 278 278 278 278 279 280 282 283 285 287 286
284 283 282 281 281 280 280 279 278 278 277 276 275 275 275 275 274 274 274 274 275 275 275 276 276 276 276 276 278 278 279 281 282 282 284 286 287 286
281 281 280 279 278 278 277 277 276 276 274 274 274 273 273 273 272 272 272 273 273 274 274 274 274 274 275 276 277 277 278 278 279 279 283 287 286 286
279 278 277 277 276 276 275 274 274 273 273 272 272 271 271 271 271 271 271 271 272 272 272 272 273 274 274 274 274 274 274 275 277 279 281 286 286 286
276 276 275 274 274 273 272 272 271 271 271 270 270 270 270 270 270 270 270 270 270 271 271 272 272 272 272 272 273 274 275 276 277 278 279 282 286 285
273 273 273 272 271 271 271 270 270 270 270 269 269 269 269 269 269 269 269 269 270 270 270 271 271 271 272 272 273 273 274 275 276 279 282 285 285 286
271 271 270 270 270 269 269 269 268 268 268 268 268 268 268 268 268 268 268 269 269 270 270 270 271 271 271 272 272 273 274 275 276 280 282 286 285 285

GFSNE_850_thetae_090.txt.gz
Theta_e
315 316 317 316 316 317 320 320 321 322 320 319 319 319 319 319 316 315 316 315 315 314 313 312 311 309 309 306 305 304 303 302 302 302 302 301 300 300
317 318 317 317 317 317 319 319 319 320 321 320 320 318 318 317 316 316 315 315 315 315 313 311 310 309 306 306 305 303 303 302 301 300 299 298 297 296
318 318 318 317 317 318 318 318 319 318 319 319 319 319 319 318 316 316 316 314 314 314 311 310 308 306 307 305 304 302 301 300 300 299 297 295 294 293
319 319 318 318 318 318 318 318 319 319 320 320 319 319 318 318 317 316 315 314 313 311 310 308 306 306 305 303 301 299 298 298 295 293 291 291 290 289
319 320 320 319 319 319 318 319 319 320 320 319 319 317 316 316 315 314 313 309 309 309 309 306 305 304 301 300 299 296 294 292 290 289 288 288 288 288
320 320 321 321 320 320 320 319 320 320 320 319 316 315 313 312 311 310 309 307 307 305 303 302 301 298 296 296 294 290 289 289 288 288 288 288 289 288
321 321 321 321 320 320 320 321 320 318 317 315 314 310 309 309 308 306 305 305 304 302 301 299 298 297 295 291 290 289 288 288 288 289 290 290 288 287
321 321 321 321 321 321 320 318 316 314 313 309 308 307 304 303 302 301 300 299 299 299 297 294 292 291 291 290 290 289 288 289 289 289 289 289 288 287
320 321 322 321 321 319 317 312 311 307 305 304 301 301 300 300 299 299 298 297 296 294 291 291 292 291 290 289 289 288 288 288 289 289 289 288 287 286
322 321 320 318 316 313 309 307 304 302 300 300 301 298 298 298 297 294 289 288 287 289 288 288 287 286 286 287 288 288 288 288 288 288 288 288 287 286
319 317 315 311 307 305 303 302 300 300 300 298 299 297 293 287 286 286 289 288 287 286 285 285 286 287 287 287 287 287 287 288 287 287 287 287 287 286
313 308 305 303 300 300 299 299 299 297 294 291 290 289 287 287 287 285 284 283 282 282 284 284 284 285 285 285 285 285 285 285 286 285 285 285 284 284
304 301 299 299 299 298 297 293 291 291 290 288 288 288 286 284 283 283 283 282 282 282 282 282 281 281 280 280 281 281 281 281 282 283 283 283 284 285
298 297 296 295 294 293 292 291 290 289 287 285 284 283 283 283 283 282 282 281 281 280 280 280 280 279 279 279 279 279 279 279 280 281 281 282 282 283
296 293 292 291 290 289 287 286 285 285 284 284 282 281 281 281 281 280 280 279 279 278 278 278 278 278 278 279 278 278 278 278 279 281 282 283 283 285
292 291 291 289 286 285 285 283 282 281 280 280 279 279 278 277 277 276 276 276 276 276 275 275 276 277 278 278 278 278 278 278 277 278 279 280 281 282
290 288 285 284 283 282 281 280 280 279 278 278 277 276 276 275 275 274 274 273 273 273 274 274 274 275 275 275 276 276 276 276 277 278 280 281 282 283
286 284 283 282 281 280 279 278 278 277 276 275 274 274 273 273 272 272 272 272 272 272 272 273 273 273 273 273 274 275 276 275 276 277 277 278 280 281
284 282 280 279 278 278 277 276 275 274 274 273 272 272 272 271 271 271 271 270 271 271 271 271 271 272 273 273 272 273 273 273 273 275 276 278 278 280
280 279 277 276 276 275 274 274 273 272 272 271 271 271 270 270 270 270 270 270 269 270 270 270 270 271 271 271 271 271 272 273 274 275 275 277 277 281
276 275 274 274 273 273 272 272 271 271 270 270 270 269 269 269 269 269 269 269 269 269 269 270 270 270 270 271 271 271 271 272 273 274 275 276 277 281
274 273 273 272 272 271 271 270 270 270 269 269 269 268 268 268 268 268 268 268 269 269 269 269 269 270 270 270 270 271 271 272 273 274 276 277 277 281
272 272 271 271 270 270 270 270 270 269 269 268 268 268 268 267 267 267 267 268 268 268 268 269 269 269 269 270 270 270 271 272 273 275 279 282 283 284

GFSNE_850_thetae_096.txt.gz
Theta_e
315 317 316 318 318 320 320 320 319 320 319 316 316 317 318 318 318 318 319 319 319 318 318 318 316 316 316 315 315 313 311 309 308 307 307 307 306 304
318 318 318 318 318 318 320 321 318 317 317 316 316 316 316 317 318 318 318 319 319 318 317 317 316 316 315 315 315 313 311 309 308 307 306 305 303 303
318 319 319 318 318 317 316 316 316 317 317 316 316 316 317 317 317 318 319 319 319 318 318 317 316 316 316 315 314 311 309 308 306 306 305 303 301 300
318 319 318 318 317 316 315 316 316 317 317 318 317 318 318 319 318 319 318 319 318 318 318 317 315 314 314 312 310 308 308 306 304 303 303 300 299 298
318 318 318 317 317 316 316 317 317 317 317 319 319 320 320 320 320 317 318 316 317 315 315 314 314 313 312 310 306 304 303 301 300 298 297 299 296 292
318 318 318 318 318 318 317 318 318 319 319 320 321 320 320 320 319 317 315 314 314 312 311 310 310 307 305 304 304 303 302 300 299 296 297 297 292 290
317 318 318 318 318 318 318 319 320 320 321 321 320 320 320 318 315 313 311 309 308 306 305 304 303 303 302 301 301 299 298 297 297 293 292 291 291 290
319 319 318 318 318 319 319 320 320 320 322 321 321 320 315 310 309 307 305 304 303 302 301 301 300 300 298 298 298 297 293 291 291 290 290 289 289 289
315 317 318 318 317 321 320 320 320 321 321 319 315 311 307 306 303 300 299 299 298 297 298 299 297 295 294 293 290 289 288 287 287 288 288 288 288 288
315 316 316 318 320 321 321 320 319 317 313 311 307 308 302 299 298 298 298 297 294 292 291 291 291 289 287 286 285 284 284 285 286 286 286 286 286 286
319 319 320 320 319 318 317 313 312 305 300 302 300 295 297 296 297 297 295 293 292 289 287 286 285 285 285 286 285 284 284 284 284 283 282 282 282 282
321 319 318 317 310 308 305 302 302 297 296 296 296 296 294 294 293 291 289 287 286 285 285 284 283 282 281 281 281 281 280 278 278 278 278 278 278 278
317 311 310 305 303 299 298 297 298 295 295 294 292 291 290 289 287 286 285 285 284 282 281 280 279 279 278 277 276 276 276 276 277 277 277 277 277 277
304 297 291 292 294 295 295 295 294 292 290 289 287 286 284 284 283 283 282 281 280 279 278 277 276 276 275 275 275 275 274 274 274 274 275 275 275 276
294 292 292 293 294 294 292 291 291 288 287 286 284 282 281 281 279 278 277 277 276 276 275 274 274 274 273 273 273 273 272 273 274 274 273 274 274 275
294 294 294 293 294 291 289 288 287 285 285 282 280 279 278 277 277 277 276 276 276 275 274 274 273 272 272 272 272 272 272 272 272 272 272 272 272 273
293 290 290 288 288 287 285 284 282 280 278 278 277 276 276 276 275 275 274 274 273 273 273 273 273 272 272 271 271 271 271 271 271 271 271 271 272 272
290 288 286 285 284 282 281 279 278 277 277 276 275 275 275 274 274 273 272 272 272 272 271 272 272 272 272 272 271 271 271 271 271 270 270 270 271 272
289 286 284 283 281 279 278 277 276 275 274 274 274 274 273 272 272 272 272 272 272 271 271 271 270 269 269 269 270 270 269 270 270 270 270 271 271 272
285 283 281 279 277 276 275 274 274 273 273 273 272 272 272 272 272 272 272 272 271 271 271 270 270 269 269 268 268 271 270 270 270 270 271 271 272 273
278 277 276 276 275 274 274 273 273 273 272 272 272 272 272 272 272 271 271 271 271 270 270 271 270 270 269 269 270 271 272 272 271 270 271 271 272 274
276 276 275 274 273 273 273 273 273 272 272 272 271 271 271 271 271 271 271 271 271 271 271 271 271 271 270 269 269 270 272 273 275 275 275 273 273 274
274 274 273 273 272 272 272 272 272 272 271 271 272 271 271 271 271 271 271 271 271 271 271 272 271 271 270 269 269 270 272 273 274 278 280 279 280 281

GFSNE_850_thetae_099.txt.gz
Theta_e
315 315 315 314 315 315 315 316 318 318 317 317 316 315 315 316 316 317 317 317 318 318 318 319 318 318 318 318 317 316 315 315 315 314 313 312 309 307
314 314 314 314 314 314 314 318 319 318 319 318 315 315 316 316 316 317 317 317 318 318 319 319 319 318 317 317 317 316 315 315 314 313 312 311 310 308
315 314 313 315 317 317 317 318 318 317 317 316 316 316 316 316 317 317 318 318 318 319 318 318 319 318 318 317 316 316 315 314 313 311 310 309 309 308
316 315 316 317 318 317 317 318 318 316 316 316 316 316 317 317 317 319 319 320 319 319 316 317 316 317 317 315 315 315 313 313 311 308 307 307 305 305
315 315 316 317 318 318 318 318 317 316 316 317 317 317 318 318 319 319 319 318 318 317 314 315 315 314 312 312 312 311 310 309 305 304 304 304 304 302
315 315 317 317 318 318 317 317 317 318 318 318 318 319 319 319 318 319 318 318 317 315 314 313 311 310 307 305 305 304 303 302 302 301 300 300 299 298
316 317 316 316 318 318 318 318 318 318 318 318 319 319 319 319 320 319 319 316 312 310 310 306 303 302 302 301 301 300 300 299 298 298 297 296 295 293
313 312 312 314 314 315 319 319 317 318 318 319 319 320 320 320 318 316 312 310 309 306 304 300 299 299 299 299 298 298 298 297 295 294 293 291 289 289
313 312 312 314 315 318 319 318 318 319 317 319 320 319 316 311 309 309 307 303 302 300 299 298 297 295 294 293 291 289 286 286 286 286 287 287 287 287
312 312 313 313 314 315 316 317 318 317 317 319 317 313 311 304 302 299 297 297 295 294 294 293 292 292 289 287 287 286 286 286 286 285 285 284 284 284
317 317 316 315 316 316 316 316 316 312 312 307 306 305 302 298 298 296 294 294 293 293 290 288 287 287 286 284 283 283 282 282 282 281 279 278 278 278
320 318 318 317 316 316 316 309 305 299 298 299 298 297 296 296 296 295 295 292 290 287 286 285 284 282 281 280 280 279 279 279 278 277 277 276 276 276
321 318 315 315 315 309 300 300 299 296 294 294 294 295 294 292 293 289 288 287 285 282 281 280 279 278 277 276 276 276 276 275 276 276 276 275 275 275
313 305 301 296 296 296 296 296 295 295 296 295 293 291 289 289 288 286 282 280 279 278 277 276 276 276 275 275 275 275 275 275 275 274 273 273 273 273
297 294 293 293 295 295 295 292 291 291 290 289 288 287 286 282 279 278 278 277 276 276 276 275 275 274 274 274 273 273 273 274 273 272 272 272 272 272
294 294 295 294 295 292 289 288 288 287 288 286 283 280 279 278 277 277 277 276 276 276 275 274 274 274 274 273 273 273 273 272 272 272 272 272 272 271
296 294 291 290 288 287 287 287 285 282 280 279 278 278 277 276 276 276 276 275 275 275 275 275 274 274 274 273 273 273 273 273 272 272 271 272 273 272
290 290 289 287 286 285 284 280 279 278 277 277 276 276 275 275 275 275 274 274 274 274 274 274 274 274 274 274 273 272 272 271 272 272 271 271 274 274
290 287 286 285 284 281 279 278 277 276 276 275 275 275 274 274 274 274 274 274 273 273 273 273 272 272 271 271 272 272 271 272 272 273 273 272 272 275
286 285 283 280 278 277 277 276 275 275 274 274 274 274 273 273 273 273 273 273 273 273 273 272 272 271 270 270 271 273 272 272 272 272 273 273 274 276
281 279 277 277 276 275 275 274 274 274 273 273 273 273 273 273 272 272 272 272 272 272 273 273 272 272 272 272 272 273 275 274 273 273 274 274 277 280
277 276 276 275 275 274 274 273 273 273 273 272 272 272 272 272 272 272 272 272 272 272 273 273 273 273 272 271 271 272 274 275 277 277 277 276 277 277
275 275 274 274 273 273 273 272 272 272 272 271 271 271 271 271 271 271 272 272 272 273 273 273 273 273 272 271 271 272 274 275 278 280 280 280 281 280

GFSNE_850_thetae_102.txt.gz
Theta_e
313 315 314 312 314 315 315 316 317 318 317 317 318 316 316 315 315 315 316 316 316 317 317 317 318 318 318 319 318 317 317 317 317 316 314 314 314 313
315 314 313 315 315 315 315 315 315 316 318 316 319 317 316 315 315 316 316 316 317 317 317 318 318 318 318 318 318 317 317 316 316 316 315 315 313 313
314 313 313 315 315 314 314 314 315 317 318 317 316 316 316 315 315 316 317 317 317 318 318 319 318 318 318 316 317 317 316 317 316 315 315 313 311 311
314 313 313 314 314 314 315 317 317 318 317 316 317 317 315 315 316 316 317 317 318 318 318 317 318 318 316 315 316 316 316 314 313 313 311 310 309 308
314 313 314 315 315 315 315 317 318 317 318 318 318 317 316 316 317 317 318 318 318 318 318 317 317 318 316 315 315 314 312 311 309 309 308 306 305 303
314 314 314 315 315 315 316 317 316 318 317 318 317 317 318 317 317 318 318 318 317 317 317 315 315 314 313 312 309 310 305 303 302 302 301 301 301 300
315 314 314 314 314 315 316 317 318 318 318 318 318 318 317 317 317 318 317 316 315 311 309 307 305 303 303 303 302 302 301 300 300 299 299 299 298 296
316 315 315 314 314 315 317 314 315 318 316 316 319 318 318 318 318 317 318 316 310 307 302 302 299 298 297 296 298 298 298 298 295 293 292 290 288 287
315 315 314 315 316 315 313 312 312 314 316 318 318 317 317 317 316 315 313 309 306 302 300 298 297 295 294 292 292 292 289 288 287 287 286 286 285 285
312 314 316 316 314 313 312 312 314 315 315 314 315 315 314 313 311 308 302 301 300 296 295 295 294 293 292 289 288 287 286 284 283 282 280 280 279 279
314 312 312 312 312 312 313 313 314 314 314 314 314 312 309 303 300 298 298 297 295 293 292 291 290 289 285 283 282 282 281 280 279 279 279 279 278 278
318 317 316 314 314 314 314 315 314 310 304 300 298 297 296 296 296 295 294 294 293 291 289 288 283 281 280 280 280 279 279 279 278 277 277 277 277 277
319 318 316 314 313 312 311 308 304 299 295 295 295 295 294 294 293 293 291 289 287 283 281 280 279 278 278 277 278 278 277 277 277 277 277 277 277 276
306 306 305 305 303 299 298 296 295 294 294 293 292 291 291 290 290 288 283 281 280 279 278 278 277 277 276 276 276 276 276 276 276 276 275 275 275 275
302 294 292 292 293 294 294 294 292 291 291 291 291 289 288 284 280 279 278 278 278 277 277 276 276 276 275 275 275 275 274 275 275 274 275 275 275 275
296 293 292 293 293 290 288 288 289 289 289 288 286 281 279 279 278 278 277 277 277 276 276 275 275 275 276 276 275 275 274 273 274 274 274 275 275 275
293 293 291 289 288 288 288 288 287 286 282 280 280 279 278 277 277 277 277 276 276 275 275 275 275 275 276 275 276 275 274 274 274 274 274 275 276 276
290 289 288 288 288 287 285 283 280 279 279 278 278 277 277 276 276 276 275 275 275 275 275 275 276 276 276 277 275 274 274 273 274 275 274 275 277 277
290 288 287 286 285 282 279 278 278 277 277 277 276 276 276 275 275 275 275 275 275 274 274 274 274 275 275 275 276 275 273 274 275 276 276 275 276 279
288 286 284 280 278 278 277 276 276 276 275 275 275 275 274 274 274 274 274 274 274 274 274 274 274 274 272 271 272 275 274 274 275 276 277 278 278 280
281 280 279 278 277 276 276 275 275 275 275 274 275 274 274 274 274 274 273 273 273 274 274 274 273 273 273 273 273 275 275 275 276 276 278 279 280 281
278 277 276 276 276 275 275 274 274 274 274 274 274 273 273 273 273 273 273 273 273 273 273 273 273 273 273 273 273 273 275 278 278 278 279 280 280 281
276 275 275 275 274 274 274 274 274 273 273 273 273 273 273 273 272 272 272 273 272 272 273 273 273 273 273 273 272 273 275 278 279 280 280 281 281 282

GFSNE_850_thetae_105.txt.gz
Theta_e
317 319 318 317 317 311 313 314 314 315 315 318 318 317 316 315 314 316 315 315 316 316 316 316 316 316 317 317 318 318 318 318 319 317 316 316 317 316
314 318 317 317 313 312 313 314 314 315 316 316 317 316 317 316 318 317 317 316 316 316 316 316 317 317 318 318 318 318 317 318 316 318 317 316 316 316
315 314 317 314 313 312 312 314 315 315 315 315 316 315 316 317 316 316 315 315 316 316 317 317 317 318 318 318 318 318 318 316 316 317 316 315 316 315
315 312 315 314 313 312 313 314 314 314 314 314 315 315 315 316 316 317 316 316 316 317 317 318 318 318 317 317 317 317 317 315 315 315 314 313 313 312
312 314 314 314 313 314 314 314 314 314 315 316 317 317 318 318 316 316 316 317 317 317 318 318 317 317 318 317 317 315 314 312 310 310 312 309 308 306
312 313 312 314 313 314 314 315 314 314 316 317 318 317 317 317 317 317 318 317 317 317 317 316 316 316 315 313 309 311 308 306 303 302 301 301 301 301
312 314 314 314 313 313 314 315 315 315 315 316 317 317 318 317 317 317 318 317 317 315 313 312 308 308 307 304 304 300 301 300 300 299 298 298 297 297
315 314 314 315 314 314 314 314 314 314 314 317 315 315 317 315 314 315 317 317 314 309 307 304 302 300 298 297 298 297 298 297 297 297 296 292 288 286
315 316 315 315 315 315 314 314 314 315 316 315 313 315 314 315 317 316 316 315 309 305 300 296 294 294 292 292 292 293 293 288 285 284 283 282 282 282
316 316 315 315 316 316 315 314 315 316 315 313 313 313 314 315 315 313 312 309 303 299 296 294 292 291 291 290 290 287 285 283 281 281 281 280 280 280
314 314 313 313 312 313 315 316 315 314 313 313 313 313 313 311 310 306 301 298 296 294 292 292 290 291 290 288 284 281 280 279 279 279 280 280 280 279
317 316 314 314 315 315 313 313 313 312 311 310 307 302 299 298 296 297 296 295 294 292 290 289 286 282 280 280 280 279 279 279 280 279 279 279 278 277
317 316 316 315 314 311 312 311 310 307 298 296 296 295 293 293 294 293 292 292 292 290 285 282 280 279 279 279 279 279 278 278 279 279 279 278 277 277
312 310 310 312 308 305 302 298 297 294 292 292 291 290 290 291 291 290 288 283 281 280 279 279 278 278 278 278 277 277 277 277 277 277 276 277 277 277
306 305 302 299 299 297 295 294 292 292 291 291 290 289 288 284 281 279 279 279 279 278 278 278 277 277 277 277 276 276 275 276 276 276 277 277 277 277
300 297 296 295 294 290 288 287 288 289 290 289 288 285 281 279 280 279 278 277 277 277 277 277 277 277 277 276 276 276 276 275 275 275 276 278 278 278
293 291 289 289 288 288 288 288 287 287 286 282 280 279 279 278 277 277 277 276 277 276 276 276 276 277 277 277 277 276 275 275 276 277 277 278 279 278
291 290 289 289 289 289 289 289 287 284 281 279 279 278 277 277 277 276 276 276 276 275 276 276 277 277 278 277 277 275 275 275 277 278 277 275 279 279
291 289 288 288 287 286 283 279 278 278 278 277 277 276 276 276 276 276 275 275 275 275 275 275 276 276 276 276 277 276 275 276 277 277 276 276 278 280
289 287 285 281 279 278 278 278 277 276 276 276 276 276 275 275 275 274 274 274 274 275 275 275 275 275 274 274 276 277 275 276 278 279 279 279 280 281
281 280 278 278 277 277 276 276 276 275 275 275 275 274 274 274 274 274 274 274 274 274 274 274 274 275 275 275 273 275 276 277 277 279 280 281 281 282
278 277 276 276 276 275 275 275 274 274 274 274 274 274 274 274 274 274 274 274 274 274 274 274 274 275 275 274 274 275 276 279 278 279 280 280 281 280
276 275 275 275 274 274 274 274 274 274 274 273 273 273 273 273 273 273 273 273 273 273 273 274 274 274 274 274 274 274 276 279 279 280 279 280 281 282

GFSNE_850_thetae_108.txt.gz
Theta_e
317 315 314 317 319 317 315 312 316 318 318 318 320 316 316 316 317 317 316 316 317 316 316 316 316 316 317 317 317 318 318 318 318 318 318 318 317 317
317 315 315 317 317 316 313 313 315 317 317 317 317 318 317 317 318 318 318 318 317 317 316 316 316 316 316 317 317 317 318 319 318 318 318 318 316 316
317 316 315 317 314 315 314 314 313 316 316 316 316 317 315 316 316 317 317 316 317 315 315 315 316 316 317 317 317 318 317 317 317 317 317 317 316 316
315 316 314 313 316 316 315 314 315 313 313 314 314 316 315 315 315 315 316 317 316 316 316 316 317 317 317 318 318 318 318 317 317 317 317 315 314 314
311 312 310 312 316 316 313 312 313 313 313 314 314 315 317 316 316 315 316 316 316 315 316 318 318 317 317 317 317 316 316 317 316 315 313 312 309 307
312 314 312 312 315 316 314 313 313 313 314 315 315 315 315 317 316 317 317 317 317 316 317 317 317 317 317 315 314 311 312 308 308 306 303 302 301 301
314 313 311 312 314 313 313 314 314 314 314 314 315 315 315 315 317 317 317 317 316 316 316 316 315 313 311 308 303 301 299 298 298 298 298 298 298 298
313 313 313 314 314 313 314 313 313 314 314 315 315 314 314 314 315 313 315 315 315 312 311 309 308 303 301 299 297 296 296 295 295 295 294 292 291 288
315 313 312 312 313 313 313 314 313 313 314 314 314 314 314 314 315 313 314 314 314 312 306 300 296 297 295 294 293 293 293 294 293 289 286 284 283 282
316 315 315 314 313 314 314 314 314 314 314 314 314 315 315 315 315 315 314 313 310 306 299 296 292 292 291 290 291 290 289 286 284 283 282 282 282 281
317 317 316 316 315 316 316 315 315 315 314 315 314 315 316 314 312 312 309 306 302 295 292 291 289 290 290 289 288 285 281 281 281 281 281 281 280 280
316 316 315 315 316 316 314 315 314 313 313 312 312 310 307 305 304 302 301 298 296 291 290 290 289 289 286 282 281 280 280 280 281 281 281 279 279 279
315 314 314 315 314 314 314 313 312 310 307 303 300 298 296 295 295 294 293 293 292 292 290 289 285 281 280 280 279 280 280 280 280 279 279 279 279 279
313 312 312 312 311 308 306 305 303 301 300 296 294 293 292 291 291 291 292 291 290 286 284 282 281 280 279 279 279 279 279 279 278 278 278 278 278 279
308 306 306 304 304 303 301 297 295 294 293 292 291 290 291 291 289 286 284 284 284 281 280 280 279 279 279 278 278 278 278 278 277 277 278 278 278 278
305 297 297 297 296 293 290 290 290 290 291 291 291 290 289 287 285 284 281 279 279 279 279 278 278 278 278 278 278 278 278 277 277 277 278 279 278 279
294 292 290 289 289 288 288 288 289 289 289 289 288 284 281 279 278 278 278 278 278 277 277 277 277 278 278 277 277 277 277 277 277 277 277 278 279 279
290 289 287 287 287 287 287 287 286 286 283 280 278 277 277 277 277 277 277 277 277 277 277 277 277 277 278 278 277 277 276 276 277 276 277 278 279 280
290 288 287 287 284 283 284 283 280 278 278 277 277 277 277 277 276 276 276 276 276 276 276 276 276 277 278 279 277 277 276 276 276 277 277 277 280 281
287 285 284 283 280 280 279 278 278 277 277 276 276 276 276 275 275 275 275 275 275 275 275 275 275 276 276 276 275 275 275 276 278 278 277 279 281 282
283 281 279 279 279 278 278 277 277 276 276 276 276 275 275 275 275 275 275 275 275 274 275 275 275 276 276 274 276 276 276 277 279 279 280 280 279 281
278 277 277 277 277 277 276 276 276 276 275 275 275 275 275 274 274 274 274 274 274 274 274 274 274 274 274 274 274 275 275 278 278 279 279 280 281 282
277 277 276 276 276 276 275 275 275 275 274 274 274 274 274 273 273 273 273 274 274 273 273 273 273 273 274 274 274 274 275 276 277 279 279 281 281 281

GFSNE_850_thetae_111.txt.gz
Theta_e
318 318 318 318 315 318 317 316 316 318 318 318 318 317 316 316 315 315 314 314 317 317 317 317 317 317 317 317 317 317 317 317 317 318 318 318 318 318
319 319 319 318 317 317 317 317 314 317 318 318 318 318 318 320 320 318 318 317 317 317 317 317 316 316 316 317 317 317 317 317 318 318 318 318 318 317
319 319 320 318 317 317 317 316 315 316 315 317 319 318 317 318 317 318 318 318 318 317 316 316 316 316 316 316 317 317 318 318 318 318 318 317 317 316
319 319 320 318 317 315 315 318 315 315 317 317 317 317 316 316 315 316 316 317 317 316 316 316 316 316 317 317 317 318 317 317 316 315 315 316 316 315
319 319 319 318 315 316 317 316 315 314 314 313 314 315 315 315 315 317 316 316 315 315 315 315 316 315 315 316 317 317 317 315 315 314 314 313 309 306
317 318 318 318 316 315 315 315 315 316 315 314 314 313 312 314 315 315 317 317 317 317 316 315 316 315 315 314 316 315 315 313 313 307 306 304 301 300
316 316 316 316 316 315 313 314 316 315 313 313 313 314 314 315 314 314 315 315 317 317 316 316 314 314 313 312 311 310 307 304 302 299 299 299 298 298
315 315 315 314 313 311 310 311 313 315 313 314 314 314 314 315 315 315 314 315 316 314 314 313 312 310 308 304 301 298 297 297 296 296 296 296 295 292
316 315 314 314 314 314 312 312 314 314 313 314 313 314 314 314 314 315 314 314 315 314 313 310 305 301 299 297 295 294 294 294 294 294 292 289 286 284
317 316 315 314 314 313 312 312 314 313 313 314 313 313 313 314 314 314 316 315 313 310 306 302 298 294 293 292 292 292 292 292 291 289 284 283 282 282
316 317 316 316 316 314 313 313 312 312 313 314 314 313 313 313 314 314 313 311 307 303 299 297 293 291 290 290 291 291 291 286 282 282 282 281 281 281
316 317 317 316 316 316 315 315 314 314 314 314 314 313 312 311 310 307 306 305 303 297 294 292 290 290 289 289 289 286 282 281 281 281 281 281 280 280
315 315 315 316 316 316 316 315 315 315 311 308 306 304 302 302 301 300 299 297 295 295 292 291 290 290 289 286 282 280 280 280 280 280 279 279 280 280
314 315 315 315 315 314 314 310 309 307 304 302 299 298 296 295 294 293 293 292 293 292 291 290 290 287 282 280 280 279 280 280 279 279 279 280 280 280
311 310 309 309 308 308 306 302 301 299 297 295 294 293 292 291 291 291 291 291 290 288 285 281 280 279 279 279 279 279 279 279 279 279 279 280 280 280
302 300 299 300 299 298 294 292 292 292 292 291 291 291 290 289 289 287 285 282 280 279 279 279 279 279 279 279 279 279 279 279 278 279 279 279 280 280
296 294 293 293 291 290 289 288 289 289 290 289 288 288 286 284 281 279 279 279 279 278 278 278 278 278 279 279 279 279 278 278 278 278 279 280 280 281
290 289 287 287 287 287 287 287 287 287 286 285 282 279 279 279 279 279 279 279 279 278 278 278 278 279 280 280 280 278 277 277 277 278 279 279 280 281
289 286 285 285 285 284 283 283 283 281 279 279 279 279 279 278 278 278 278 278 278 278 277 277 277 278 280 281 279 278 277 277 277 277 277 278 278 280
285 283 282 281 281 280 279 279 278 278 278 278 278 278 278 278 277 278 278 278 278 277 277 277 277 276 276 277 276 278 277 277 277 277 278 279 280 282
281 280 280 279 278 278 277 277 277 277 277 277 277 277 277 277 276 276 276 276 276 276 277 277 276 276 276 276 277 278 277 276 277 278 279 280 281 282
278 278 277 277 276 276 276 276 276 276 276 276 275 275 275 275 275 275 275 276 275 275 276 275 275 275 276 276 276 276 277 277 278 278 279 279 280 282
276 276 276 276 276 275 275 275 275 275 274 274 274 274 274 274 274 274 274 274 274 274 274 275 275 276 276 276 276 276 277 277 278 278 279 280 281 281

GFSNE_850_thetae_114.txt.gz
Theta_e
322 321 321 319 318 320 318 315 317 318 318 318 318 318 318 317 318 319 318 317 315 314 315 316 317 317 317 316 316 317 317 317 317 317 317 317 318 318
321 320 319 319 319 320 316 318 318 315 317 317 318 317 318 319 318 317 317 318 317 316 316 316 316 316 316 316 316 316 317 317 317 317 317 318 318 318
320 319 319 319 319 318 316 318 318 318 315 316 316 317 317 318 318 318 320 318 318 317 317 317 317 317 316 316 316 316 317 317 317 318 318 317 316 315
320 319 319 318 318 318 317 317 317 317 316 316 316 317 317 316 316 318 317 316 316 316 317 317 316 316 316 316 316 316 316 316 317 317 317 315 312 312
321 319 319 319 319 319 318 317 317 315 316 315 317 317 317 317 316 315 315 316 315 315 315 315 315 315 315 315 316 315 315 315 314 314 314 311 309 307
320 319 319 319 319 319 319 318 316 315 316 315 316 316 314 314 314 314 314 315 315 315 316 316 316 316 316 316 316 315 313 313 313 312 305 302 301 301
319 318 319 319 319 319 319 317 317 316 315 315 314 314 314 315 314 313 314 314 314 315 315 315 315 315 315 313 313 313 312 311 311 303 300 298 297 297
317 316 317 318 318 318 318 317 316 315 315 315 315 315 314 313 313 314 314 315 315 315 314 313 313 313 312 309 309 306 304 300 298 297 296 296 296 294
317 316 316 316 316 317 317 316 315 314 313 313 314 314 314 314 314 314 314 314 314 314 314 312 309 306 304 302 297 295 295 294 294 294 294 294 289 286
317 316 316 314 315 314 314 314 312 311 311 313 314 314 314 313 314 314 313 314 314 313 310 307 301 297 295 294 293 292 293 293 293 292 287 284 282 282
316 316 316 316 315 314 314 313 313 313 313 312 313 313 313 313 313 313 313 312 310 306 303 301 298 295 292 291 291 291 290 291 289 284 282 282 282 281
316 315 316 316 316 315 315 314 313 313 313 313 313 312 312 311 311 311 309 308 306 302 300 297 294 292 291 290 290 288 289 286 282 281 281 281 281 281
316 316 316 316 315 315 315 315 315 314 313 311 308 307 305 305 304 304 303 302 301 299 296 294 292 290 290 288 288 285 281 280 281 280 280 280 280 280
315 315 315 315 315 314 313 312 311 310 307 305 302 301 300 299 298 298 297 296 296 295 294 292 292 290 289 285 281 280 280 280 279 279 279 280 280 280
312 312 311 310 310 309 308 308 306 302 301 299 297 296 295 295 294 293 293 292 291 290 290 288 285 282 281 280 280 280 280 279 279 279 279 280 280 281
302 300 302 302 303 302 299 297 296 295 295 294 294 292 292 291 291 289 289 286 284 282 281 280 280 280 280 280 280 279 279 279 279 279 280 280 280 281
297 297 295 295 294 292 292 292 291 291 292 291 291 291 289 288 286 282 281 280 280 279 279 279 279 279 279 279 279 279 279 279 278 279 280 280 280 281
293 292 289 289 289 288 288 288 288 289 289 289 287 285 282 280 280 279 279 279 279 279 278 278 279 280 280 281 281 279 278 278 278 278 279 279 280 281
290 287 286 286 286 286 287 287 287 285 283 281 280 280 279 279 279 279 279 278 278 278 278 278 278 278 280 281 280 278 278 278 277 278 279 280 280 281
285 284 284 284 283 283 282 281 280 280 280 279 279 278 278 278 278 279 279 278 278 277 277 277 278 277 277 277 277 278 278 278 277 278 280 280 281 282
283 283 282 282 282 282 281 280 279 279 279 279 278 278 278 278 277 277 276 277 277 277 277 277 277 276 276 277 277 277 277 277 277 278 279 280 281 282
280 279 279 278 278 278 277 277 278 277 277 277 277 277 276 276 276 276 277 276 276 276 276 276 276 276 276 276 276 276 276 277 277 277 278 279 280 281
278 278 277 277 277 277 277 277 277 277 276 276 276 276 276 276 276 275 275 275 275 275 275 275 275 276 276 276 276 276 276 277 277 277 279 280 280 281

GFSNE_850_thetae_117.txt.gz
Theta_e
323 324 323 322 321 321 320 320 318 318 319 319 318 317 319 319 318 319 318 318 317 317 317 316 314 315 316 316 316 316 316 316 316 316 316 317 317 317
324 323 322 322 321 321 320 319 318 317 319 318 316 316 316 318 318 317 319 319 318 318 317 317 315 316 316 317 316 316 316 316 316 316 317 317 317 317
322 323 322 321 320 320 320 319 317 316 316 317 317 318 318 318 317 318 318 319 318 318 317 316 318 317 317 316 316 316 316 316 316 316 317 317 317 315
321 321 320 320 320 320 319 320 316 318 317 317 315 317 317 317 317 318 317 317 316 318 317 316 315 316 317 316 316 315 315 315 315 315 315 315 314 314
321 319 319 320 320 319 319 319 317 318 317 316 316 316 316 316 316 317 314 315 316 315 315 315 315 315 315 315 315 315 315 315 315 314 312 312 311 307
322 322 320 319 319 319 319 319 317 316 316 315 315 316 316 317 316 316 316 315 314 313 313 315 315 315 315 316 316 316 315 314 314 312 311 308 306 301
321 320 320 320 319 319 319 318 317 317 316 317 316 316 316 317 316 314 314 314 314 313 314 315 315 315 314 315 314 313 313 309 308 302 300 299 298 298
319 319 319 319 319 319 319 319 319 319 317 316 315 315 315 316 315 315 314 314 314 314 314 314 313 313 313 312 311 306 302 299 296 296 296 296 296 295
318 318 317 317 318 318 318 318 318 318 318 316 315 315 315 314 314 315 314 313 314 315 315 312 311 309 308 303 299 297 295 295 295 295 294 294 292 290
316 317 317 316 316 316 317 317 317 316 315 315 315 315 313 313 314 314 314 314 314 313 313 309 307 304 299 296 293 293 293 293 293 293 292 290 286 285
316 316 316 315 315 315 315 315 314 314 314 314 313 312 311 314 314 314 313 313 312 310 309 305 301 297 294 292 290 291 291 291 290 291 288 284 282 281
316 316 316 316 315 315 314 314 314 313 313 313 313 313 313 313 313 312 312 310 308 306 304 301 298 295 291 289 289 289 289 290 287 284 282 281 281 281
315 315 315 315 315 315 315 315 314 314 313 312 312 311 311 310 309 308 306 305 304 303 301 299 296 293 291 289 287 288 288 282 281 281 280 280 281 281
315 316 316 316 316 314 314 313 314 313 312 310 307 305 304 303 302 301 301 300 300 299 297 294 294 292 291 289 287 282 280 280 280 280 280 280 281 280
314 314 314 315 314 313 312 312 311 308 306 304 302 300 299 298 298 297 296 296 295 294 292 291 291 290 289 286 282 280 280 280 280 280 279 280 280 281
308 306 306 308 308 308 305 302 301 299 298 298 297 296 294 293 293 292 292 291 291 289 285 282 281 281 281 280 280 280 280 279 279 279 279 280 280 281
301 301 300 298 300 297 295 295 295 294 294 294 293 292 291 291 289 285 284 283 283 281 280 280 279 280 279 279 280 279 279 278 278 278 279 280 280 280
297 297 294 292 293 291 291 291 291 291 290 290 290 289 287 285 283 281 281 281 281 280 280 279 279 279 279 280 280 280 278 278 278 278 278 280 280 280
294 291 290 289 289 288 288 289 289 288 287 286 285 283 281 281 280 280 280 279 279 279 279 278 278 280 280 281 280 279 278 278 278 278 278 280 281 280
289 288 287 287 287 287 287 287 285 283 282 281 280 280 280 280 279 279 279 278 278 278 278 278 278 277 277 277 277 277 277 278 278 278 278 280 280 281
286 286 285 285 285 284 283 281 281 280 280 280 279 279 279 279 279 278 278 278 278 277 278 277 277 276 276 277 277 277 277 277 277 277 278 279 280 281
284 283 282 281 280 280 279 279 279 279 279 279 278 278 278 277 277 277 277 277 277 277 277 276 276 276 276 276 276 276 276 276 277 277 277 277 278 279
280 280 279 279 278 278 278 278 278 278 277 277 277 277 277 277 277 276 276 276 276 276 275 275 275 276 276 276 276 276 275 276 277 277 277 277 279 280